Wetterdaten: Samstag, 07.11.2015
Datum Zeit Temp. Aussen Temp. o. S. +5cm Feuchte Auss BlattFeu 1 Luftdruck Regen Sonnenschein Regendauer Solar Windben Empfang
07.11.2015 00:00 16,6 C 16,1 C 15,0 C 98 % 15 lf 1019,8 hPa 0,0 l/m 0 min 0 min 0 W/m 20,9 km/h (4 Bft) 93,48 %
07.11.2015 00:02 16,6 C 16,1 C 15,0 C 98 % 15 lf 1019,8 hPa 0,0 l/m 0 min 0 min 0 W/m 27,2 km/h (4 Bft) 90,48 %
07.11.2015 00:06 16,6 C 16,7 C 15,0 C 98 % 15 lf 1019,9 hPa 0,0 l/m 0 min 0 min 0 W/m 27,2 km/h (4 Bft) 92,55 %
07.11.2015 00:08 16,6 C 16,7 C 15,0 C 98 % 15 lf 1019,8 hPa 0,0 l/m 0 min 0 min 0 W/m 25,1 km/h (4 Bft) 93,62 %
07.11.2015 00:10 16,7 C 16,7 C 15,0 C 98 % 15 lf 1019,8 hPa 0,0 l/m 0 min 0 min 0 W/m 31,4 km/h (5 Bft) 95,65 %
07.11.2015 00:12 16,7 C 16,7 C 15,0 C 98 % 15 lf 1019,8 hPa 0,0 l/m 0 min 0 min 0 W/m 25,1 km/h (4 Bft) 95,74 %
07.11.2015 00:14 16,7 C 16,7 C 15,0 C 98 % 15 lf 1019,8 hPa 0,0 l/m 0 min 0 min 0 W/m 14,6 km/h (3 Bft) 91,49 %
07.11.2015 00:16 16,7 C 16,7 C 15,0 C 98 % 15 lf 1019,9 hPa 0,0 l/m 0 min 0 min 0 W/m 25,1 km/h (4 Bft) 93,62 %
07.11.2015 00:18 16,7 C 16,7 C 15,0 C 98 % 15 lf 1019,9 hPa 0,0 l/m 0 min 0 min 0 W/m 27,2 km/h (4 Bft) 95,74 %
07.11.2015 00:20 16,7 C 16,7 C 15,0 C 98 % 15 lf 1019,9 hPa 0,0 l/m 0 min 0 min 0 W/m 25,1 km/h (4 Bft) 93,62 %
07.11.2015 00:22 16,7 C 16,7 C 15,0 C 98 % 15 lf 1020,0 hPa 0,0 l/m 0 min 0 min 0 W/m 20,9 km/h (4 Bft) 94,29 %
07.11.2015 00:24 16,7 C 16,7 C 15,0 C 98 % 15 lf 1020,0 hPa 0,0 l/m 0 min 0 min 0 W/m 23,0 km/h (4 Bft) 95,74 %
07.11.2015 00:26 16,7 C 16,7 C 15,0 C 98 % 15 lf 1019,9 hPa 0,0 l/m 0 min 0 min 0 W/m 23,0 km/h (4 Bft) 95,65 %
07.11.2015 00:28 16,7 C 16,7 C 15,0 C 98 % 15 lf 1019,9 hPa 0,0 l/m 0 min 0 min 0 W/m 27,2 km/h (4 Bft) 96,61 %
07.11.2015 00:30 16,7 C 16,7 C 15,0 C 98 % 15 lf 1020,0 hPa 0,0 l/m 0 min 0 min 0 W/m 27,2 km/h (4 Bft) 97,87 %
07.11.2015 00:32 16,7 C 16,7 C 15,0 C 98 % 15 lf 1020,0 hPa 0,0 l/m 0 min 0 min 0 W/m 23,0 km/h (4 Bft) 97,14 %
07.11.2015 00:34 16,8 C 16,7 C 15,0 C 98 % 15 lf 1020,0 hPa 0,0 l/m 0 min 0 min 0 W/m 23,0 km/h (4 Bft) 96,55 %
07.11.2015 00:36 16,8 C 16,7 C 15,0 C 98 % 15 lf 1020,0 hPa 0,0 l/m 0 min 0 min 0 W/m 23,0 km/h (4 Bft) 91,67 %
07.11.2015 00:38 16,8 C 16,7 C 15,0 C 98 % 15 lf 1020,1 hPa 0,0 l/m 0 min 0 min 0 W/m 18,8 km/h (3 Bft) 95,65 %
07.11.2015 00:40 16,8 C 16,7 C 15,0 C 98 % 15 lf 1020,0 hPa 0,0 l/m 0 min 0 min 0 W/m 25,1 km/h (4 Bft) 94,92 %
07.11.2015 00:42 16,8 C 16,7 C 15,0 C 98 % 15 lf 1020,0 hPa 0,0 l/m 0 min 0 min 0 W/m 20,9 km/h (4 Bft) 97,87 %
07.11.2015 00:44 16,8 C 16,7 C 15,0 C 98 % 15 lf 1020,0 hPa 0,0 l/m 0 min 0 min 0 W/m 16,7 km/h (3 Bft) 97,14 %
07.11.2015 00:46 16,8 C 16,7 C 15,0 C 98 % 15 lf 1020,0 hPa 0,0 l/m 0 min 0 min 0 W/m 27,2 km/h (4 Bft) 97,87 %
07.11.2015 00:48 16,8 C 16,7 C 15,0 C 98 % 15 lf 1020,0 hPa 0,0 l/m 0 min 0 min 0 W/m 37,7 km/h (5 Bft) 97,83 %
07.11.2015 00:50 16,8 C 16,7 C 15,0 C 98 % 15 lf 1019,9 hPa 0,0 l/m 0 min 0 min 0 W/m 25,1 km/h (4 Bft) 94,92 %
07.11.2015 00:52 16,8 C 16,7 C 15,0 C 98 % 15 lf 1020,0 hPa 0,0 l/m 0 min 0 min 0 W/m 20,9 km/h (4 Bft) 100,00 %
07.11.2015 00:54 16,8 C 16,7 C 15,0 C 98 % 15 lf 1020,0 hPa 0,0 l/m 0 min 0 min 0 W/m 23,0 km/h (4 Bft) 100,00 %
07.11.2015 00:56 16,9 C 16,7 C 15,0 C 98 % 15 lf 1020,0 hPa 0,0 l/m 0 min 0 min 0 W/m 20,9 km/h (4 Bft) 97,87 %
07.11.2015 00:58 16,9 C 16,7 C 15,0 C 98 % 15 lf 1020,1 hPa 0,0 l/m 0 min 0 min 0 W/m 25,1 km/h (4 Bft) 100,00 %
07.11.2015 01:00 16,9 C 16,7 C 15,0 C 98 % 15 lf 1020,0 hPa 0,0 l/m 0 min 0 min 0 W/m 20,9 km/h (4 Bft) 97,87 %
07.11.2015 01:02 16,9 C 16,7 C 15,0 C 98 % 15 lf 1020,0 hPa 0,0 l/m 0 min 0 min 0 W/m 18,8 km/h (3 Bft) 97,83 %
07.11.2015 01:04 16,9 C 16,7 C 15,0 C 98 % 14 lf 1020,0 hPa 0,0 l/m 0 min 0 min 0 W/m 16,7 km/h (3 Bft) 100,00 %
07.11.2015 01:06 16,9 C 16,7 C 15,0 C 98 % 13 lf 1020,0 hPa 0,0 l/m 0 min 0 min 0 W/m 23,0 km/h (4 Bft) 95,74 %
07.11.2015 01:08 16,9 C 16,7 C 15,0 C 98 % 12 lf 1020,0 hPa 0,0 l/m 0 min 0 min 0 W/m 23,0 km/h (4 Bft) 97,87 %
07.11.2015 01:10 16,9 C 16,7 C 15,0 C 98 % 10 lf 1020,1 hPa 0,0 l/m 0 min 0 min 0 W/m 20,9 km/h (4 Bft) 100,00 %
07.11.2015 01:12 16,9 C 16,7 C 15,0 C 98 % 7 lf 1020,1 hPa 0,0 l/m 0 min 0 min 0 W/m 20,9 km/h (4 Bft) 95,83 %
07.11.2015 01:14 16,9 C 16,7 C 15,0 C 98 % 5 lf 1020,1 hPa 0,0 l/m 0 min 0 min 0 W/m 16,7 km/h (3 Bft) 95,74 %
07.11.2015 01:16 16,9 C 16,7 C 15,0 C 98 % 4 lf 1020,1 hPa 0,0 l/m 0 min 0 min 0 W/m 23,0 km/h (4 Bft) 100,00 %
07.11.2015 01:18 16,9 C 16,7 C 15,0 C 98 % 3 lf 1020,0 hPa 0,0 l/m 0 min 0 min 0 W/m 25,1 km/h (4 Bft) 93,62 %
07.11.2015 01:20 16,9 C 16,7 C 15,0 C 98 % 2 lf 1020,0 hPa 0,0 l/m 0 min 0 min 0 W/m 20,9 km/h (4 Bft) 95,74 %
07.11.2015 01:22 16,9 C 16,7 C 15,0 C 98 % 2 lf 1020,0 hPa 0,0 l/m 0 min 0 min 0 W/m 18,8 km/h (3 Bft) 92,00 %
07.11.2015 01:24 16,9 C 16,7 C 15,0 C 98 % 2 lf 1020,1 hPa 0,0 l/m 0 min 0 min 0 W/m 12,6 km/h (3 Bft) 95,65 %
07.11.2015 01:26 16,9 C 16,7 C 15,0 C 98 % 2 lf 1020,1 hPa 0,0 l/m 0 min 0 min 0 W/m 16,7 km/h (3 Bft) 93,62 %
07.11.2015 01:28 16,9 C 16,7 C 15,0 C 98 % 2 lf 1020,1 hPa 0,0 l/m 0 min 0 min 0 W/m 20,9 km/h (4 Bft) 93,62 %
07.11.2015 01:30 16,9 C 16,7 C 15,0 C 98 % 2 lf 1020,1 hPa 0,0 l/m 0 min 0 min 0 W/m 23,0 km/h (4 Bft) 95,74 %
07.11.2015 01:32 16,9 C 16,7 C 15,0 C 98 % 2 lf 1020,1 hPa 0,0 l/m 0 min 0 min 0 W/m 23,0 km/h (4 Bft) 95,74 %
07.11.2015 01:34 16,9 C 17,2 C 15,0 C 98 % 2 lf 1020,1 hPa 0,0 l/m 0 min 0 min 0 W/m 16,7 km/h (3 Bft) 95,65 %
07.11.2015 01:36 16,9 C 17,2 C 15,0 C 98 % 1 lf 1020,1 hPa 0,0 l/m 0 min 0 min 0 W/m 27,2 km/h (4 Bft) 93,62 %
07.11.2015 01:38 16,9 C 17,2 C 15,0 C 98 % 1 lf 1020,0 hPa 0,0 l/m 0 min 0 min 0 W/m 20,9 km/h (4 Bft) 89,36 %
07.11.2015 01:40 17,0 C 17,2 C 15,0 C 98 % 1 lf 1020,1 hPa 0,0 l/m 0 min 0 min 0 W/m 23,0 km/h (4 Bft) 95,74 %
07.11.2015 01:42 17,0 C 17,2 C 15,0 C 98 % 1 lf 1020,0 hPa 0,0 l/m 0 min 0 min 0 W/m 20,9 km/h (4 Bft) 95,74 %
07.11.2015 01:44 17,0 C 17,2 C 15,0 C 98 % 1 lf 1020,1 hPa 0,0 l/m 0 min 0 min 0 W/m 12,6 km/h (3 Bft) 91,49 %
07.11.2015 01:46 17,0 C 17,2 C 15,0 C 98 % 1 lf 1020,1 hPa 0,0 l/m 0 min 0 min 0 W/m 20,9 km/h (4 Bft) 91,49 %
07.11.2015 01:48 17,0 C 17,2 C 15,0 C 98 % 1 lf 1020,0 hPa 0,0 l/m 0 min 0 min 0 W/m 27,2 km/h (4 Bft) 95,65 %
07.11.2015 01:50 17,0 C 17,2 C 15,0 C 98 % 1 lf 1020,1 hPa 0,0 l/m 0 min 0 min 0 W/m 29,3 km/h (5 Bft) 97,87 %
07.11.2015 01:52 17,0 C 17,2 C 15,0 C 98 % 1 lf 1020,1 hPa 0,0 l/m 0 min 0 min 0 W/m 20,9 km/h (4 Bft) 97,87 %
07.11.2015 01:54 17,1 C 17,2 C 15,0 C 98 % 1 lf 1020,2 hPa 0,0 l/m 0 min 0 min 0 W/m 23,0 km/h (4 Bft) 93,62 %
07.11.2015 01:56 17,1 C 17,2 C 15,0 C 97 % 1 lf 1020,2 hPa 0,0 l/m 0 min 0 min 0 W/m 27,2 km/h (4 Bft) 97,14 %
07.11.2015 01:58 17,1 C 17,2 C 15,0 C 97 % 1 lf 1020,3 hPa 0,0 l/m 0 min 0 min 0 W/m 23,0 km/h (4 Bft) 96,61 %
07.11.2015 02:00 17,1 C 17,2 C 15,0 C 97 % 1 lf 1020,3 hPa 0,0 l/m 0 min 0 min 0 W/m 23,0 km/h (4 Bft) 97,87 %
07.11.2015 02:02 17,1 C 17,2 C 15,0 C 97 % 1 lf 1020,1 hPa 0,0 l/m 0 min 0 min 0 W/m 23,0 km/h (4 Bft) 95,74 %
07.11.2015 02:04 17,1 C 17,2 C 15,0 C 97 % 1 lf 1020,1 hPa 0,0 l/m 0 min 0 min 0 W/m 16,7 km/h (3 Bft) 97,87 %
07.11.2015 02:06 17,1 C 17,2 C 15,0 C 97 % 1 lf 1020,0 hPa 0,0 l/m 0 min 0 min 0 W/m 23,0 km/h (4 Bft) 93,62 %
07.11.2015 02:08 17,1 C 17,2 C 15,0 C 97 % 1 lf 1019,9 hPa 0,0 l/m 0 min 0 min 0 W/m 25,1 km/h (4 Bft) 97,83 %
07.11.2015 02:10 17,1 C 17,2 C 15,0 C 97 % 1 lf 1020,0 hPa 0,0 l/m 0 min 0 min 0 W/m 27,2 km/h (4 Bft) 97,87 %
07.11.2015 02:12 17,1 C 17,2 C 15,0 C 97 % 1 lf 1020,0 hPa 0,0 l/m 0 min 0 min 0 W/m 23,0 km/h (4 Bft) 97,87 %
07.11.2015 02:14 17,1 C 17,2 C 15,0 C 97 % 1 lf 1020,0 hPa 0,0 l/m 0 min 0 min 0 W/m 18,8 km/h (3 Bft) 97,87 %
07.11.2015 02:16 17,1 C 17,2 C 15,0 C 97 % 1 lf 1020,1 hPa 0,0 l/m 0 min 0 min 0 W/m 20,9 km/h (4 Bft) 100,00 %
07.11.2015 02:18 17,1 C 17,2 C 15,0 C 97 % 1 lf 1020,0 hPa 0,0 l/m 0 min 0 min 0 W/m 25,1 km/h (4 Bft) 97,87 %
07.11.2015 02:20 17,1 C 17,2 C 15,0 C 97 % 1 lf 1020,1 hPa 0,0 l/m 0 min 0 min 0 W/m 27,2 km/h (4 Bft) 93,48 %
07.11.2015 02:22 17,1 C 17,2 C 15,0 C 97 % 1 lf 1020,2 hPa 0,0 l/m 0 min 0 min 0 W/m 23,0 km/h (4 Bft) 97,87 %
07.11.2015 02:24 17,2 C 17,2 C 15,0 C 97 % 1 lf 1020,1 hPa 0,0 l/m 0 min 0 min 0 W/m 27,2 km/h (4 Bft) 95,74 %
07.11.2015 02:26 17,2 C 17,2 C 15,0 C 97 % 1 lf 1020,2 hPa 0,0 l/m 0 min 0 min 0 W/m 31,4 km/h (5 Bft) 97,87 %
07.11.2015 02:28 17,2 C 17,2 C 15,0 C 97 % 1 lf 1020,1 hPa 0,0 l/m 0 min 0 min 0 W/m 25,1 km/h (4 Bft) 95,74 %
07.11.2015 02:30 17,2 C 17,2 C 15,0 C 97 % 1 lf 1020,1 hPa 0,0 l/m 0 min 0 min 0 W/m 16,7 km/h (3 Bft) 95,74 %
07.11.2015 02:32 17,2 C 17,2 C 15,0 C 97 % 1 lf 1020,1 hPa 0,0 l/m 0 min 0 min 0 W/m 25,1 km/h (4 Bft) 100,00 %
07.11.2015 02:34 17,2 C 17,2 C 15,0 C 97 % 1 lf 1020,1 hPa 0,0 l/m 0 min 0 min 0 W/m 23,0 km/h (4 Bft) 97,87 %
07.11.2015 02:36 17,2 C 17,2 C 15,0 C 97 % 3 lf 1020,1 hPa 0,0 l/m 0 min 0 min 0 W/m 25,1 km/h (4 Bft) 100,00 %
07.11.2015 02:38 17,2 C 17,2 C 15,0 C 97 % 3 lf 1020,1 hPa 0,0 l/m 0 min 0 min 0 W/m 23,0 km/h (4 Bft) 95,74 %
07.11.2015 02:40 17,2 C 17,2 C 15,0 C 97 % 2 lf 1020,1 hPa 0,0 l/m 0 min 0 min 0 W/m 23,0 km/h (4 Bft) 100,00 %
07.11.2015 02:42 17,2 C 17,2 C 15,0 C 96 % 1 lf 1020,1 hPa 0,0 l/m 0 min 0 min 0 W/m 23,0 km/h (4 Bft) 97,14 %
07.11.2015 02:44 17,2 C 17,2 C 15,0 C 96 % 1 lf 1020,1 hPa 0,0 l/m 0 min 0 min 0 W/m 20,9 km/h (4 Bft) 97,87 %
07.11.2015 02:46 17,2 C 17,2 C 15,0 C 96 % 1 lf 1020,1 hPa 0,0 l/m 0 min 0 min 0 W/m 20,9 km/h (4 Bft) 97,83 %
07.11.2015 02:48 17,2 C 17,2 C 15,0 C 96 % 1 lf 1020,1 hPa 0,0 l/m 0 min 0 min 0 W/m 18,8 km/h (3 Bft) 97,87 %
07.11.2015 02:50 17,2 C 17,2 C 15,0 C 96 % 1 lf 1020,0 hPa 0,0 l/m 0 min 0 min 0 W/m 20,9 km/h (4 Bft) 100,00 %
07.11.2015 02:52 17,2 C 17,2 C 15,0 C 96 % 1 lf 1020,1 hPa 0,0 l/m 0 min 0 min 0 W/m 16,7 km/h (3 Bft) 100,00 %
07.11.2015 02:54 17,2 C 17,2 C 15,0 C 96 % 1 lf 1020,1 hPa 0,0 l/m 0 min 0 min 0 W/m 23,0 km/h (4 Bft) 97,87 %
07.11.2015 02:56 17,2 C 17,2 C 15,0 C 96 % 1 lf 1020,2 hPa 0,0 l/m 0 min 0 min 0 W/m 18,8 km/h (3 Bft) 97,87 %
07.11.2015 02:58 17,2 C 17,2 C 15,0 C 96 % 1 lf 1020,2 hPa 0,0 l/m 0 min 0 min 0 W/m 25,1 km/h (4 Bft) 97,83 %
07.11.2015 03:00 17,2 C 17,2 C 15,0 C 96 % 1 lf 1020,3 hPa 0,0 l/m 0 min 0 min 0 W/m 25,1 km/h (4 Bft) 95,74 %
07.11.2015 03:02 17,2 C 17,2 C 15,0 C 96 % 1 lf 1020,3 hPa 0,0 l/m 0 min 0 min 0 W/m 20,9 km/h (4 Bft) 92,00 %
07.11.2015 03:04 17,2 C 17,2 C 15,0 C 96 % 1 lf 1020,3 hPa 0,0 l/m 0 min 0 min 0 W/m 23,0 km/h (4 Bft) 93,62 %
07.11.2015 03:06 17,2 C 17,2 C 15,0 C 96 % 1 lf 1020,2 hPa 0,0 l/m 0 min 0 min 0 W/m 27,2 km/h (4 Bft) 95,74 %
07.11.2015 03:08 17,2 C 17,2 C 15,0 C 96 % 1 lf 1020,3 hPa 0,0 l/m 0 min 0 min 0 W/m 20,9 km/h (4 Bft) 95,65 %
07.11.2015 03:10 17,2 C 17,2 C 15,0 C 96 % 1 lf 1020,3 hPa 0,0 l/m 0 min 0 min 0 W/m 16,7 km/h (3 Bft) 91,49 %
07.11.2015 03:12 17,2 C 17,2 C 15,0 C 96 % 1 lf 1020,3 hPa 0,0 l/m 0 min 0 min 0 W/m 18,8 km/h (3 Bft) 95,83 %
07.11.2015 03:14 17,1 C 17,2 C 15,0 C 96 % 1 lf 1020,3 hPa 0,0 l/m 0 min 0 min 0 W/m 18,8 km/h (3 Bft) 93,62 %
07.11.2015 03:16 17,1 C 17,2 C 15,0 C 96 % 1 lf 1020,4 hPa 0,0 l/m 0 min 0 min 0 W/m 18,8 km/h (3 Bft) 95,74 %
07.11.2015 03:18 17,1 C 17,2 C 15,0 C 96 % 1 lf 1020,4 hPa 0,0 l/m 0 min 0 min 0 W/m 20,9 km/h (4 Bft) 91,49 %
07.11.2015 03:20 17,1 C 17,2 C 15,0 C 96 % 1 lf 1020,3 hPa 0,0 l/m 0 min 0 min 0 W/m 18,8 km/h (3 Bft) 91,30 %
07.11.2015 03:22 17,1 C 17,2 C 15,0 C 96 % 1 lf 1020,3 hPa 0,0 l/m 0 min 0 min 0 W/m 29,3 km/h (5 Bft) 89,58 %
07.11.2015 03:24 17,1 C 17,2 C 15,0 C 96 % 1 lf 1020,3 hPa 0,0 l/m 0 min 0 min 0 W/m 20,9 km/h (4 Bft) 93,62 %
07.11.2015 03:26 17,1 C 17,2 C 15,0 C 96 % 1 lf 1020,3 hPa 0,0 l/m 0 min 0 min 0 W/m 16,7 km/h (3 Bft) 91,49 %
07.11.2015 03:28 17,1 C 17,2 C 15,0 C 96 % 1 lf 1020,3 hPa 0,0 l/m 0 min 0 min 0 W/m 20,9 km/h (4 Bft) 95,74 %
07.11.2015 03:30 17,1 C 17,2 C 15,0 C 96 % 1 lf 1020,3 hPa 0,0 l/m 0 min 0 min 0 W/m 18,8 km/h (3 Bft) 93,48 %
07.11.2015 03:32 17,1 C 17,2 C 15,0 C 96 % 1 lf 1020,3 hPa 0,0 l/m 0 min 0 min 0 W/m 20,9 km/h (4 Bft) 89,36 %
07.11.2015 03:34 17,1 C 17,2 C 15,0 C 96 % 1 lf 1020,3 hPa 0,0 l/m 0 min 0 min 0 W/m 16,7 km/h (3 Bft) 93,62 %
07.11.2015 03:36 17,1 C 17,2 C 15,0 C 96 % 2 lf 1020,3 hPa 0,0 l/m 0 min 0 min 0 W/m 12,6 km/h (3 Bft) 89,36 %
07.11.2015 03:38 17,1 C 17,2 C 15,0 C 96 % 1 lf 1020,3 hPa 0,0 l/m 0 min 0 min 0 W/m 16,7 km/h (3 Bft) 93,62 %
07.11.2015 03:40 17,1 C 17,2 C 15,0 C 96 % 1 lf 1020,3 hPa 0,0 l/m 0 min 0 min 0 W/m 20,9 km/h (4 Bft) 95,74 %
07.11.2015 03:42 17,1 C 17,2 C 15,0 C 96 % 1 lf 1020,3 hPa 0,0 l/m 0 min 0 min 0 W/m 20,9 km/h (4 Bft) 93,48 %
07.11.2015 03:44 17,1 C 17,2 C 15,0 C 96 % 4 lf 1020,4 hPa 0,0 l/m 0 min 2 min 0 W/m 18,8 km/h (3 Bft) 93,62 %
07.11.2015 03:46 17,1 C 17,2 C 15,0 C 96 % 3 lf 1020,4 hPa 0,0 l/m 0 min 0 min 0 W/m 20,9 km/h (4 Bft) 93,62 %
07.11.2015 03:48 17,1 C 17,2 C 15,0 C 96 % 2 lf 1020,4 hPa 0,0 l/m 0 min 0 min 0 W/m 20,9 km/h (4 Bft) 95,74 %
07.11.2015 03:50 17,1 C 17,2 C 15,0 C 96 % 1 lf 1020,4 hPa 0,0 l/m 0 min 0 min 0 W/m 16,7 km/h (3 Bft) 95,74 %
07.11.2015 03:52 17,1 C 17,2 C 15,0 C 96 % 1 lf 1020,5 hPa 0,0 l/m 0 min 0 min 0 W/m 18,8 km/h (3 Bft) 97,87 %
07.11.2015 03:54 17,1 C 17,2 C 15,0 C 96 % 1 lf 1020,4 hPa 0,0 l/m 0 min 0 min 0 W/m 16,7 km/h (3 Bft) 97,83 %
07.11.2015 03:56 17,1 C 17,2 C 15,0 C 96 % 4 lf 1020,5 hPa 0,0 l/m 0 min 2 min 0 W/m 14,6 km/h (3 Bft) 95,74 %
07.11.2015 03:58 17,1 C 16,7 C 15,0 C 96 % 9 lf 1020,5 hPa 0,0 l/m 0 min 2 min 0 W/m 20,9 km/h (4 Bft) 95,74 %
07.11.2015 04:00 17,1 C 16,7 C 15,0 C 96 % 14 lf 1020,5 hPa 0,0 l/m 0 min 2 min 0 W/m 18,8 km/h (3 Bft) 97,87 %
07.11.2015 04:05 17,1 C 16,7 C 15,0 C 96 % 14 lf 1020,7 hPa 0,0 l/m 0 min 2 min 0 W/m 18,8 km/h (3 Bft) 95,08 %
07.11.2015 04:06 17,1 C 16,7 C 15,0 C 96 % 14 lf 1020,7 hPa 0,0 l/m 0 min 1 min 0 W/m 18,8 km/h (3 Bft) 100,00 %
07.11.2015 04:08 17,1 C 16,7 C 15,0 C 96 % 14 lf 1020,6 hPa 0,0 l/m 0 min 2 min 0 W/m 16,7 km/h (3 Bft) 95,74 %
07.11.2015 04:10 17,1 C 16,7 C 15,0 C 96 % 15 lf 1020,6 hPa 0,0 l/m 0 min 0 min 0 W/m 18,8 km/h (3 Bft) 95,74 %
07.11.2015 04:12 17,1 C 16,7 C 15,0 C 96 % 15 lf 1020,5 hPa 0,0 l/m 0 min 0 min 0 W/m 18,8 km/h (3 Bft) 95,74 %
07.11.2015 04:14 17,0 C 16,7 C 15,0 C 96 % 15 lf 1020,6 hPa 0,0 l/m 0 min 0 min 0 W/m 16,7 km/h (3 Bft) 93,62 %
07.11.2015 04:16 17,0 C 16,7 C 15,0 C 96 % 15 lf 1020,7 hPa 0,0 l/m 0 min 0 min 0 W/m 18,8 km/h (3 Bft) 93,48 %
07.11.2015 04:18 17,0 C 16,7 C 15,0 C 96 % 14 lf 1020,7 hPa 0,0 l/m 0 min 0 min 0 W/m 23,0 km/h (4 Bft) 97,87 %
07.11.2015 04:20 17,0 C 16,7 C 15,0 C 96 % 13 lf 1020,8 hPa 0,0 l/m 0 min 0 min 0 W/m 14,6 km/h (3 Bft) 97,87 %
07.11.2015 04:22 17,0 C 16,7 C 15,0 C 96 % 12 lf 1020,7 hPa 0,0 l/m 0 min 0 min 0 W/m 20,9 km/h (4 Bft) 97,14 %
07.11.2015 04:24 17,0 C 16,7 C 15,0 C 96 % 12 lf 1020,8 hPa 0,0 l/m 0 min 0 min 0 W/m 20,9 km/h (4 Bft) 96,61 %
07.11.2015 04:26 17,0 C 16,7 C 15,0 C 96 % 10 lf 1020,8 hPa 0,0 l/m 0 min 0 min 0 W/m 16,7 km/h (3 Bft) 93,62 %
07.11.2015 04:28 17,0 C 16,7 C 15,0 C 96 % 9 lf 1020,8 hPa 0,0 l/m 0 min 0 min 0 W/m 12,6 km/h (3 Bft) 97,14 %
07.11.2015 04:30 17,0 C 16,7 C 15,0 C 96 % 7 lf 1020,8 hPa 0,0 l/m 0 min 0 min 0 W/m 20,9 km/h (4 Bft) 93,10 %
07.11.2015 04:32 17,0 C 16,7 C 15,0 C 96 % 4 lf 1020,8 hPa 0,0 l/m 0 min 0 min 0 W/m 27,2 km/h (4 Bft) 92,86 %
07.11.2015 04:34 16,9 C 16,7 C 15,0 C 96 % 3 lf 1020,8 hPa 0,0 l/m 0 min 0 min 0 W/m 25,1 km/h (4 Bft) 95,74 %
07.11.2015 04:36 16,9 C 17,2 C 15,0 C 96 % 2 lf 1020,8 hPa 0,0 l/m 0 min 0 min 0 W/m 20,9 km/h (4 Bft) 93,62 %
07.11.2015 04:38 16,9 C 17,2 C 15,0 C 96 % 1 lf 1020,7 hPa 0,0 l/m 0 min 0 min 0 W/m 20,9 km/h (4 Bft) 97,87 %
07.11.2015 04:40 16,9 C 17,2 C 15,0 C 96 % 1 lf 1020,7 hPa 0,0 l/m 0 min 0 min 0 W/m 18,8 km/h (3 Bft) 97,87 %
07.11.2015 04:42 16,9 C 17,2 C 15,0 C 96 % 1 lf 1020,7 hPa 0,0 l/m 0 min 0 min 0 W/m 14,6 km/h (3 Bft) 97,87 %
07.11.2015 04:44 16,9 C 17,2 C 15,0 C 96 % 1 lf 1020,8 hPa 0,0 l/m 0 min 0 min 0 W/m 16,7 km/h (3 Bft) 95,65 %
07.11.2015 04:46 16,9 C 17,2 C 15,0 C 96 % 1 lf 1020,8 hPa 0,0 l/m 0 min 0 min 0 W/m 25,1 km/h (4 Bft) 97,87 %
07.11.2015 04:48 16,9 C 17,2 C 15,0 C 96 % 1 lf 1020,8 hPa 0,0 l/m 0 min 0 min 0 W/m 18,8 km/h (3 Bft) 95,74 %
07.11.2015 04:50 16,9 C 17,2 C 15,0 C 96 % 1 lf 1020,7 hPa 0,0 l/m 0 min 0 min 0 W/m 23,0 km/h (4 Bft) 93,62 %
07.11.2015 04:52 16,9 C 16,7 C 15,0 C 96 % 1 lf 1020,7 hPa 0,0 l/m 0 min 0 min 0 W/m 16,7 km/h (3 Bft) 97,92 %
07.11.2015 04:54 16,9 C 16,7 C 15,0 C 96 % 1 lf 1020,7 hPa 0,0 l/m 0 min 0 min 0 W/m 16,7 km/h (3 Bft) 95,65 %
07.11.2015 04:56 16,9 C 16,7 C 15,0 C 96 % 1 lf 1020,7 hPa 0,0 l/m 0 min 0 min 0 W/m 18,8 km/h (3 Bft) 97,87 %
07.11.2015 04:58 16,9 C 16,7 C 15,0 C 96 % 1 lf 1020,8 hPa 0,0 l/m 0 min 0 min 0 W/m 18,8 km/h (3 Bft) 97,87 %
07.11.2015 05:00 16,9 C 16,7 C 15,0 C 96 % 1 lf 1020,8 hPa 0,0 l/m 0 min 0 min 0 W/m 14,6 km/h (3 Bft) 100,00 %
07.11.2015 05:02 16,9 C 16,7 C 14,4 C 96 % 1 lf 1020,8 hPa 0,0 l/m 0 min 0 min 0 W/m 14,6 km/h (3 Bft) 96,00 %
07.11.2015 05:04 16,9 C 16,7 C 14,4 C 96 % 1 lf 1020,8 hPa 0,0 l/m 0 min 0 min 0 W/m 23,0 km/h (4 Bft) 97,87 %
07.11.2015 05:06 16,9 C 16,7 C 14,4 C 96 % 1 lf 1020,8 hPa 0,0 l/m 0 min 0 min 0 W/m 16,7 km/h (3 Bft) 95,65 %
07.11.2015 05:08 16,8 C 16,7 C 14,4 C 96 % 1 lf 1020,9 hPa 0,0 l/m 0 min 0 min 0 W/m 18,8 km/h (3 Bft) 97,87 %
07.11.2015 05:10 16,8 C 16,7 C 14,4 C 96 % 1 lf 1020,9 hPa 0,0 l/m 0 min 0 min 0 W/m 18,8 km/h (3 Bft) 100,00 %
07.11.2015 05:12 16,8 C 16,7 C 14,4 C 96 % 1 lf 1020,9 hPa 0,0 l/m 0 min 0 min 0 W/m 29,3 km/h (5 Bft) 93,62 %
07.11.2015 05:14 16,8 C 16,7 C 14,4 C 96 % 1 lf 1020,9 hPa 0,0 l/m 0 min 0 min 0 W/m 14,6 km/h (3 Bft) 95,74 %
07.11.2015 05:16 16,8 C 16,7 C 14,4 C 96 % 1 lf 1020,9 hPa 0,0 l/m 0 min 0 min 0 W/m 20,9 km/h (4 Bft) 95,74 %
07.11.2015 05:18 16,8 C 16,7 C 14,4 C 96 % 1 lf 1021,0 hPa 0,0 l/m 0 min 0 min 0 W/m 16,7 km/h (3 Bft) 97,83 %
07.11.2015 05:20 16,8 C 16,7 C 14,4 C 96 % 1 lf 1021,1 hPa 0,0 l/m 0 min 0 min 0 W/m 14,6 km/h (3 Bft) 97,87 %
07.11.2015 05:22 16,8 C 16,7 C 14,4 C 96 % 1 lf 1021,2 hPa 0,0 l/m 0 min 0 min 0 W/m 14,6 km/h (3 Bft) 97,92 %
07.11.2015 05:24 16,7 C 16,7 C 14,4 C 96 % 1 lf 1021,1 hPa 0,0 l/m 0 min 0 min 0 W/m 16,7 km/h (3 Bft) 93,62 %
07.11.2015 05:26 16,7 C 16,7 C 14,4 C 96 % 1 lf 1021,0 hPa 0,0 l/m 0 min 0 min 0 W/m 14,6 km/h (3 Bft) 97,87 %
07.11.2015 05:28 16,7 C 16,7 C 14,4 C 96 % 1 lf 1020,9 hPa 0,0 l/m 0 min 0 min 0 W/m 18,8 km/h (3 Bft) 93,48 %
07.11.2015 05:30 16,7 C 16,7 C 14,4 C 96 % 1 lf 1021,0 hPa 0,0 l/m 0 min 0 min 0 W/m 16,7 km/h (3 Bft) 97,87 %
07.11.2015 05:32 16,7 C 16,7 C 14,4 C 96 % 1 lf 1021,1 hPa 0,0 l/m 0 min 0 min 0 W/m 18,8 km/h (3 Bft) 97,87 %
07.11.2015 05:34 16,7 C 16,7 C 14,4 C 96 % 1 lf 1021,0 hPa 0,0 l/m 0 min 0 min 0 W/m 18,8 km/h (3 Bft) 93,62 %
07.11.2015 05:36 16,7 C 16,7 C 14,4 C 96 % 1 lf 1021,1 hPa 0,0 l/m 0 min 0 min 0 W/m 14,6 km/h (3 Bft) 95,74 %
07.11.2015 05:38 16,6 C 16,7 C 14,4 C 96 % 1 lf 1021,1 hPa 0,0 l/m 0 min 0 min 0 W/m 14,6 km/h (3 Bft) 93,48 %
07.11.2015 05:40 16,6 C 16,7 C 14,4 C 96 % 1 lf 1021,1 hPa 0,0 l/m 0 min 0 min 0 W/m 14,6 km/h (3 Bft) 97,87 %
07.11.2015 05:42 16,6 C 16,1 C 14,4 C 96 % 1 lf 1021,1 hPa 0,0 l/m 0 min 0 min 0 W/m 12,6 km/h (3 Bft) 93,62 %
07.11.2015 05:44 16,6 C 16,1 C 14,4 C 96 % 1 lf 1021,2 hPa 0,0 l/m 0 min 0 min 0 W/m 14,6 km/h (3 Bft) 95,74 %
07.11.2015 05:46 16,6 C 16,7 C 14,4 C 96 % 1 lf 1021,3 hPa 0,0 l/m 0 min 0 min 0 W/m 16,7 km/h (3 Bft) 97,87 %
07.11.2015 05:48 16,5 C 16,1 C 14,4 C 96 % 1 lf 1021,3 hPa 0,0 l/m 0 min 0 min 0 W/m 10,5 km/h (2 Bft) 100,00 %
07.11.2015 05:50 16,5 C 16,1 C 14,4 C 96 % 1 lf 1021,2 hPa 0,0 l/m 0 min 0 min 0 W/m 10,5 km/h (2 Bft) 100,00 %
07.11.2015 05:52 16,5 C 16,1 C 14,4 C 96 % 1 lf 1021,3 hPa 0,0 l/m 0 min 0 min 0 W/m 14,6 km/h (3 Bft) 95,74 %
07.11.2015 05:54 16,4 C 16,1 C 14,4 C 96 % 1 lf 1021,3 hPa 0,0 l/m 0 min 0 min 0 W/m 10,5 km/h (2 Bft) 95,74 %
07.11.2015 05:56 16,4 C 16,1 C 14,4 C 96 % 1 lf 1021,4 hPa 0,0 l/m 0 min 0 min 0 W/m 16,7 km/h (3 Bft) 97,87 %
07.11.2015 05:58 16,4 C 16,1 C 14,4 C 96 % 1 lf 1021,3 hPa 0,0 l/m 0 min 0 min 0 W/m 18,8 km/h (3 Bft) 97,87 %
07.11.2015 06:00 16,4 C 16,1 C 14,4 C 96 % 1 lf 1021,4 hPa 0,0 l/m 0 min 0 min 0 W/m 10,5 km/h (2 Bft) 87,23 %
07.11.2015 06:04 16,4 C 16,1 C 14,4 C 96 % 1 lf 1021,4 hPa 0,0 l/m 0 min 0 min 0 W/m 14,6 km/h (3 Bft) 96,63 %
07.11.2015 06:06 16,4 C 16,1 C 13,9 C 96 % 1 lf 1021,4 hPa 0,0 l/m 0 min 0 min 0 W/m 12,6 km/h (3 Bft) 97,83 %
07.11.2015 06:08 16,4 C 16,1 C 13,9 C 96 % 1 lf 1021,5 hPa 0,0 l/m 0 min 0 min 0 W/m 10,5 km/h (2 Bft) 95,74 %
07.11.2015 06:10 16,4 C 16,1 C 13,9 C 95 % 1 lf 1021,5 hPa 0,0 l/m 0 min 0 min 0 W/m 12,6 km/h (3 Bft) 95,74 %
07.11.2015 06:12 16,3 C 16,1 C 13,9 C 95 % 1 lf 1021,6 hPa 0,0 l/m 0 min 0 min 0 W/m 12,6 km/h (3 Bft) 95,74 %
07.11.2015 06:14 16,3 C 16,1 C 13,9 C 95 % 1 lf 1021,5 hPa 0,0 l/m 0 min 0 min 0 W/m 14,6 km/h (3 Bft) 97,87 %
07.11.2015 06:16 16,3 C 16,1 C 14,4 C 95 % 1 lf 1021,5 hPa 0,0 l/m 0 min 0 min 0 W/m 12,6 km/h (3 Bft) 95,74 %
07.11.2015 06:18 16,3 C 16,1 C 13,9 C 95 % 1 lf 1021,5 hPa 0,0 l/m 0 min 0 min 0 W/m 14,6 km/h (3 Bft) 97,83 %
07.11.2015 06:20 16,3 C 16,1 C 13,9 C 95 % 1 lf 1021,5 hPa 0,0 l/m 0 min 0 min 0 W/m 14,6 km/h (3 Bft) 95,74 %
07.11.2015 06:22 16,3 C 16,1 C 13,9 C 95 % 1 lf 1021,4 hPa 0,0 l/m 0 min 0 min 0 W/m 12,6 km/h (3 Bft) 98,00 %
07.11.2015 06:24 16,3 C 16,1 C 13,9 C 95 % 1 lf 1021,4 hPa 0,0 l/m 0 min 0 min 0 W/m 14,6 km/h (3 Bft) 97,87 %
07.11.2015 06:26 16,3 C 16,1 C 13,9 C 95 % 1 lf 1021,5 hPa 0,0 l/m 0 min 0 min 0 W/m 12,6 km/h (3 Bft) 97,87 %
07.11.2015 06:28 16,3 C 16,1 C 13,9 C 95 % 1 lf 1021,5 hPa 0,0 l/m 0 min 0 min 0 W/m 14,6 km/h (3 Bft) 91,30 %
07.11.2015 06:30 16,2 C 16,1 C 13,9 C 95 % 1 lf 1021,6 hPa 0,0 l/m 0 min 0 min 0 W/m 16,7 km/h (3 Bft) 97,87 %
07.11.2015 06:32 16,2 C 16,1 C 13,9 C 95 % 1 lf 1021,6 hPa 0,0 l/m 0 min 0 min 0 W/m 14,6 km/h (3 Bft) 95,83 %
07.11.2015 06:34 16,2 C 16,1 C 13,9 C 95 % 1 lf 1021,6 hPa 0,0 l/m 0 min 0 min 0 W/m 12,6 km/h (3 Bft) 97,87 %
07.11.2015 06:36 16,2 C 16,1 C 13,9 C 95 % 1 lf 1021,6 hPa 0,0 l/m 0 min 0 min 0 W/m 16,7 km/h (3 Bft) 97,87 %
07.11.2015 06:38 16,2 C 16,1 C 13,9 C 95 % 1 lf 1021,7 hPa 0,0 l/m 0 min 0 min 0 W/m 12,6 km/h (3 Bft) 100,00 %
07.11.2015 06:40 16,2 C 16,1 C 13,9 C 95 % 1 lf 1021,7 hPa 0,0 l/m 0 min 0 min 0 W/m 14,6 km/h (3 Bft) 95,65 %
07.11.2015 06:42 16,2 C 16,1 C 13,9 C 95 % 1 lf 1021,7 hPa 0,0 l/m 0 min 0 min 0 W/m 12,6 km/h (3 Bft) 95,83 %
07.11.2015 06:44 16,2 C 16,1 C 13,9 C 95 % 1 lf 1021,7 hPa 0,0 l/m 0 min 0 min 0 W/m 12,6 km/h (3 Bft) 100,00 %
07.11.2015 06:46 16,2 C 16,1 C 13,9 C 95 % 1 lf 1021,7 hPa 0,0 l/m 0 min 0 min 0 W/m 10,5 km/h (2 Bft) 95,74 %
07.11.2015 06:48 16,2 C 16,1 C 13,9 C 95 % 1 lf 1021,7 hPa 0,0 l/m 0 min 0 min 0 W/m 12,6 km/h (3 Bft) 97,83 %
07.11.2015 06:50 16,2 C 16,1 C 13,9 C 95 % 1 lf 1021,7 hPa 0,0 l/m 0 min 0 min 0 W/m 12,6 km/h (3 Bft) 95,74 %
07.11.2015 06:52 16,2 C 16,1 C 13,9 C 95 % 1 lf 1021,8 hPa 0,0 l/m 0 min 0 min 0 W/m 8,4 km/h (2 Bft) 95,74 %
07.11.2015 06:54 16,2 C 16,1 C 13,9 C 95 % 1 lf 1021,8 hPa 0,0 l/m 0 min 0 min 0 W/m 10,5 km/h (2 Bft) 91,49 %
07.11.2015 06:56 16,2 C 16,1 C 13,9 C 96 % 1 lf 1021,8 hPa 0,0 l/m 0 min 0 min 0 W/m 8,4 km/h (2 Bft) 93,62 %
07.11.2015 06:58 16,2 C 16,1 C 13,9 C 96 % 1 lf 1021,8 hPa 0,0 l/m 0 min 0 min 0 W/m 8,4 km/h (2 Bft) 97,87 %
07.11.2015 07:00 16,2 C 16,1 C 13,9 C 96 % 1 lf 1021,8 hPa 0,0 l/m 0 min 0 min 0 W/m 6,3 km/h (2 Bft) 95,65 %
07.11.2015 07:02 16,2 C 16,1 C 13,9 C 96 % 1 lf 1021,8 hPa 0,0 l/m 0 min 0 min 0 W/m 6,3 km/h (2 Bft) 95,74 %
07.11.2015 07:04 16,1 C 16,1 C 13,9 C 96 % 1 lf 1021,8 hPa 0,0 l/m 0 min 0 min 0 W/m 8,4 km/h (2 Bft) 95,74 %
07.11.2015 07:06 16,1 C 16,1 C 13,9 C 96 % 1 lf 1021,8 hPa 0,0 l/m 0 min 0 min 0 W/m 8,4 km/h (2 Bft) 91,49 %
07.11.2015 07:08 16,1 C 16,1 C 13,9 C 96 % 1 lf 1021,9 hPa 0,0 l/m 0 min 0 min 0 W/m 8,4 km/h (2 Bft) 91,49 %
07.11.2015 07:10 16,1 C 16,1 C 13,9 C 96 % 1 lf 1021,9 hPa 0,0 l/m 0 min 0 min 0 W/m 14,6 km/h (3 Bft) 87,23 %
07.11.2015 07:12 16,1 C 16,1 C 13,9 C 96 % 1 lf 1022,0 hPa 0,0 l/m 0 min 0 min 0 W/m 8,4 km/h (2 Bft) 93,48 %
07.11.2015 07:14 16,1 C 16,1 C 13,9 C 96 % 1 lf 1022,0 hPa 0,0 l/m 0 min 0 min 0 W/m 10,5 km/h (2 Bft) 95,74 %
07.11.2015 07:16 16,1 C 15,6 C 13,9 C 96 % 1 lf 1022,0 hPa 0,0 l/m 0 min 0 min 0 W/m 10,5 km/h (2 Bft) 91,49 %
07.11.2015 07:18 16,1 C 15,6 C 13,9 C 96 % 2 lf 1022,0 hPa 0,0 l/m 0 min 0 min 0 W/m 8,4 km/h (2 Bft) 93,62 %
07.11.2015 07:20 16,1 C 15,6 C 13,9 C 96 % 2 lf 1022,0 hPa 0,0 l/m 0 min 0 min 0 W/m 8,4 km/h (2 Bft) 93,62 %
07.11.2015 07:22 16,1 C 16,1 C 13,9 C 96 % 2 lf 1022,1 hPa 0,0 l/m 0 min 0 min 0 W/m 10,5 km/h (2 Bft) 93,62 %
07.11.2015 07:24 16,1 C 16,1 C 13,9 C 96 % 2 lf 1022,1 hPa 0,0 l/m 0 min 0 min 0 W/m 10,5 km/h (2 Bft) 91,30 %
07.11.2015 07:26 16,1 C 16,1 C 13,9 C 96 % 2 lf 1022,1 hPa 0,0 l/m 0 min 0 min 0 W/m 10,5 km/h (2 Bft) 91,49 %
07.11.2015 07:28 16,1 C 15,6 C 13,9 C 96 % 2 lf 1022,1 hPa 0,0 l/m 0 min 0 min 0 W/m 8,4 km/h (2 Bft) 91,49 %
07.11.2015 07:30 16,1 C 15,6 C 13,9 C 96 % 2 lf 1022,1 hPa 0,0 l/m 0 min 0 min 0 W/m 8,4 km/h (2 Bft) 91,49 %
07.11.2015 07:32 16,1 C 16,1 C 13,9 C 96 % 2 lf 1022,3 hPa 0,0 l/m 0 min 0 min 0 W/m 14,6 km/h (3 Bft) 93,62 %
07.11.2015 07:34 16,1 C 16,1 C 13,9 C 96 % 2 lf 1022,4 hPa 0,0 l/m 0 min 0 min 0 W/m 16,7 km/h (3 Bft) 89,36 %
07.11.2015 07:36 16,1 C 16,1 C 13,9 C 96 % 2 lf 1022,4 hPa 0,0 l/m 0 min 0 min 0 W/m 10,5 km/h (2 Bft) 86,96 %
07.11.2015 07:38 16,1 C 16,1 C 13,9 C 96 % 2 lf 1022,4 hPa 0,0 l/m 0 min 0 min 0 W/m 8,4 km/h (2 Bft) 89,36 %
07.11.2015 07:40 16,1 C 16,1 C 13,9 C 96 % 1 lf 1022,2 hPa 0,0 l/m 0 min 0 min 0 W/m 10,5 km/h (2 Bft) 93,62 %
07.11.2015 07:42 16,1 C 16,1 C 13,9 C 96 % 1 lf 1022,1 hPa 0,0 l/m 0 min 0 min 4 W/m 10,5 km/h (2 Bft) 95,74 %
07.11.2015 07:44 16,1 C 16,1 C 13,9 C 96 % 1 lf 1021,8 hPa 0,0 l/m 0 min 0 min 5 W/m 6,3 km/h (2 Bft) 93,62 %
07.11.2015 07:46 16,1 C 16,1 C 13,9 C 96 % 2 lf 1021,7 hPa 0,0 l/m 0 min 0 min 7 W/m 6,3 km/h (2 Bft) 95,65 %
07.11.2015 07:48 16,1 C 16,1 C 13,9 C 96 % 2 lf 1021,8 hPa 0,0 l/m 0 min 0 min 9 W/m 14,6 km/h (3 Bft) 95,74 %
07.11.2015 07:50 16,1 C 16,1 C 13,9 C 96 % 2 lf 1021,9 hPa 0,0 l/m 0 min 0 min 10 W/m 8,4 km/h (2 Bft) 97,87 %
07.11.2015 07:52 16,1 C 16,1 C 13,9 C 96 % 2 lf 1022,0 hPa 0,0 l/m 0 min 0 min 11 W/m 6,3 km/h (2 Bft) 97,87 %
07.11.2015 07:54 16,1 C 15,6 C 13,9 C 96 % 2 lf 1022,2 hPa 0,0 l/m 0 min 0 min 11 W/m 8,4 km/h (2 Bft) 100,00 %
07.11.2015 07:56 16,1 C 16,1 C 13,9 C 96 % 2 lf 1022,2 hPa 0,0 l/m 0 min 0 min 12 W/m 14,6 km/h (3 Bft) 97,87 %
07.11.2015 07:58 16,1 C 16,1 C 13,9 C 96 % 2 lf 1022,4 hPa 0,0 l/m 0 min 0 min 12 W/m 10,5 km/h (2 Bft) 100,00 %
07.11.2015 08:00 16,1 C 16,1 C 13,9 C 96 % 2 lf 1022,4 hPa 0,0 l/m 0 min 0 min 12 W/m 10,5 km/h (2 Bft) 97,83 %
07.11.2015 08:02 16,1 C 16,1 C 13,9 C 96 % 2 lf 1022,4 hPa 0,0 l/m 0 min 0 min 14 W/m 12,6 km/h (3 Bft) 97,87 %
07.11.2015 08:04 16,1 C 16,1 C 14,4 C 96 % 1 lf 1022,5 hPa 0,0 l/m 0 min 0 min 18 W/m 10,5 km/h (2 Bft) 97,87 %
07.11.2015 08:06 16,1 C 16,1 C 14,4 C 96 % 1 lf 1022,4 hPa 0,0 l/m 0 min 0 min 20 W/m 16,7 km/h (3 Bft) 100,00 %
07.11.2015 08:08 16,1 C 16,1 C 14,4 C 96 % 1 lf 1022,3 hPa 0,0 l/m 0 min 0 min 27 W/m 6,3 km/h (2 Bft) 100,00 %
07.11.2015 08:10 16,1 C 16,7 C 14,4 C 96 % 1 lf 1022,2 hPa 0,0 l/m 2 min 0 min 36 W/m 8,4 km/h (2 Bft) 97,87 %
07.11.2015 08:12 16,1 C 16,7 C 14,4 C 96 % 1 lf 1022,1 hPa 0,0 l/m 2 min 0 min 52 W/m 4,2 km/h (1 Bft) 100,00 %
07.11.2015 08:14 16,1 C 16,7 C 14,4 C 96 % 1 lf 1022,0 hPa 0,0 l/m 2 min 0 min 61 W/m 12,6 km/h (3 Bft) 100,00 %
07.11.2015 08:16 16,1 C 16,7 C 14,4 C 96 % 1 lf 1022,2 hPa 0,0 l/m 2 min 0 min 56 W/m 8,4 km/h (2 Bft) 100,00 %
07.11.2015 08:18 16,1 C 16,7 C 14,4 C 96 % 1 lf 1022,3 hPa 0,0 l/m 2 min 0 min 49 W/m 6,3 km/h (2 Bft) 97,87 %
07.11.2015 08:20 16,1 C 16,7 C 14,4 C 96 % 1 lf 1022,4 hPa 0,0 l/m 2 min 0 min 45 W/m 8,4 km/h (2 Bft) 100,00 %
07.11.2015 08:22 16,1 C 16,7 C 14,4 C 96 % 1 lf 1022,6 hPa 0,0 l/m 0 min 0 min 42 W/m 8,4 km/h (2 Bft) 97,83 %
07.11.2015 08:24 16,2 C 16,7 C 14,4 C 96 % 1 lf 1022,6 hPa 0,0 l/m 0 min 0 min 41 W/m 6,3 km/h (2 Bft) 100,00 %
07.11.2015 08:26 16,2 C 16,7 C 14,4 C 96 % 1 lf 1022,6 hPa 0,0 l/m 0 min 0 min 48 W/m 4,2 km/h (1 Bft) 100,00 %
07.11.2015 08:28 16,2 C 16,7 C 14,4 C 96 % 1 lf 1022,4 hPa 0,0 l/m 2 min 0 min 55 W/m 6,3 km/h (2 Bft) 100,00 %
07.11.2015 08:30 16,2 C 16,7 C 14,4 C 97 % 1 lf 1022,3 hPa 0,0 l/m 2 min 0 min 56 W/m 6,3 km/h (2 Bft) 95,74 %
07.11.2015 08:32 16,2 C 16,7 C 14,4 C 97 % 1 lf 1022,4 hPa 0,0 l/m 0 min 0 min 55 W/m 6,3 km/h (2 Bft) 100,00 %
07.11.2015 08:34 16,2 C 16,7 C 14,4 C 97 % 1 lf 1022,4 hPa 0,0 l/m 0 min 0 min 49 W/m 4,2 km/h (1 Bft) 100,00 %
07.11.2015 08:36 16,2 C 16,7 C 14,4 C 97 % 1 lf 1022,4 hPa 0,0 l/m 0 min 0 min 41 W/m 12,6 km/h (3 Bft) 97,87 %
07.11.2015 08:38 16,2 C 16,7 C 14,4 C 97 % 1 lf 1022,5 hPa 0,0 l/m 0 min 0 min 35 W/m 8,4 km/h (2 Bft) 97,87 %
07.11.2015 08:40 16,2 C 16,7 C 14,4 C 97 % 1 lf 1022,4 hPa 0,0 l/m 0 min 0 min 30 W/m 8,4 km/h (2 Bft) 100,00 %
07.11.2015 08:42 16,2 C 16,7 C 14,4 C 97 % 1 lf 1022,4 hPa 0,0 l/m 0 min 0 min 28 W/m 6,3 km/h (2 Bft) 100,00 %
07.11.2015 08:44 16,2 C 16,7 C 14,4 C 97 % 1 lf 1022,3 hPa 0,0 l/m 0 min 0 min 28 W/m 6,3 km/h (2 Bft) 97,87 %
07.11.2015 08:46 16,2 C 16,7 C 14,4 C 97 % 1 lf 1022,3 hPa 0,0 l/m 0 min 0 min 28 W/m 8,4 km/h (2 Bft) 93,48 %
07.11.2015 08:48 16,2 C 16,7 C 14,4 C 97 % 1 lf 1022,3 hPa 0,0 l/m 0 min 0 min 26 W/m 4,2 km/h (1 Bft) 97,87 %
07.11.2015 08:50 16,2 C 16,7 C 14,4 C 97 % 1 lf 1022,3 hPa 0,0 l/m 0 min 0 min 24 W/m 8,4 km/h (2 Bft) 97,87 %
07.11.2015 08:52 16,3 C 16,7 C 14,4 C 97 % 1 lf 1022,4 hPa 0,0 l/m 0 min 0 min 22 W/m 12,6 km/h (3 Bft) 93,62 %
07.11.2015 08:54 16,3 C 16,7 C 14,4 C 97 % 1 lf 1022,4 hPa 0,0 l/m 0 min 0 min 22 W/m 12,6 km/h (3 Bft) 97,87 %
07.11.2015 08:56 16,3 C 16,7 C 14,4 C 97 % 1 lf 1022,4 hPa 0,0 l/m 0 min 0 min 28 W/m 14,6 km/h (3 Bft) 97,87 %
07.11.2015 08:58 16,3 C 16,7 C 14,4 C 97 % 1 lf 1022,4 hPa 0,0 l/m 0 min 0 min 30 W/m 12,6 km/h (3 Bft) 95,65 %
07.11.2015 09:00 16,3 C 16,7 C 14,4 C 97 % 1 lf 1022,4 hPa 0,0 l/m 0 min 0 min 26 W/m 8,4 km/h (2 Bft) 95,74 %
07.11.2015 09:02 16,3 C 16,7 C 14,4 C 97 % 1 lf 1022,4 hPa 0,0 l/m 0 min 0 min 32 W/m 8,4 km/h (2 Bft) 93,62 %
07.11.2015 09:04 16,3 C 16,7 C 14,4 C 97 % 1 lf 1022,3 hPa 0,0 l/m 0 min 0 min 35 W/m 10,5 km/h (2 Bft) 95,74 %
07.11.2015 09:06 16,3 C 16,7 C 14,4 C 97 % 1 lf 1022,3 hPa 0,0 l/m 0 min 0 min 47 W/m 6,3 km/h (2 Bft) 93,62 %
07.11.2015 09:08 16,3 C 16,7 C 15,0 C 97 % 1 lf 1022,3 hPa 0,0 l/m 0 min 0 min 52 W/m 6,3 km/h (2 Bft) 95,65 %
07.11.2015 09:10 16,3 C 17,2 C 15,0 C 97 % 1 lf 1022,2 hPa 0,0 l/m 0 min 0 min 56 W/m 6,3 km/h (2 Bft) 95,74 %
07.11.2015 09:12 16,3 C 17,2 C 15,0 C 97 % 1 lf 1022,2 hPa 0,0 l/m 0 min 0 min 57 W/m 6,3 km/h (2 Bft) 93,62 %
07.11.2015 09:14 16,3 C 17,2 C 15,0 C 97 % 1 lf 1022,2 hPa 0,0 l/m 0 min 0 min 61 W/m 6,3 km/h (2 Bft) 93,62 %
07.11.2015 09:16 16,3 C 17,2 C 15,0 C 97 % 1 lf 1022,3 hPa 0,0 l/m 0 min 0 min 56 W/m 8,4 km/h (2 Bft) 95,74 %
07.11.2015 09:18 16,4 C 17,2 C 15,0 C 97 % 1 lf 1022,3 hPa 0,0 l/m 0 min 0 min 50 W/m 10,5 km/h (2 Bft) 95,74 %
07.11.2015 09:20 16,4 C 17,2 C 15,0 C 97 % 1 lf 1022,4 hPa 0,0 l/m 0 min 0 min 47 W/m 12,6 km/h (3 Bft) 95,65 %
07.11.2015 09:22 16,4 C 17,2 C 15,0 C 97 % 1 lf 1022,4 hPa 0,0 l/m 0 min 0 min 44 W/m 4,2 km/h (1 Bft) 97,22 %
07.11.2015 09:24 16,4 C 17,2 C 15,0 C 97 % 1 lf 1022,4 hPa 0,0 l/m 0 min 0 min 42 W/m 4,2 km/h (1 Bft) 95,65 %
07.11.2015 09:26 16,4 C 17,2 C 15,0 C 97 % 1 lf 1022,3 hPa 0,0 l/m 0 min 0 min 43 W/m 6,3 km/h (2 Bft) 95,74 %
07.11.2015 09:28 16,4 C 17,2 C 15,0 C 97 % 1 lf 1022,3 hPa 0,0 l/m 0 min 0 min 53 W/m 8,4 km/h (2 Bft) 95,74 %
07.11.2015 09:30 16,4 C 17,2 C 15,0 C 97 % 1 lf 1022,2 hPa 0,0 l/m 0 min 0 min 54 W/m 12,6 km/h (3 Bft) 93,62 %
07.11.2015 09:32 16,5 C 17,2 C 15,0 C 97 % 1 lf 1022,2 hPa 0,0 l/m 0 min 0 min 58 W/m 10,5 km/h (2 Bft) 95,74 %
07.11.2015 09:34 16,5 C 17,2 C 15,0 C 97 % 1 lf 1022,2 hPa 0,0 l/m 0 min 0 min 62 W/m 12,6 km/h (3 Bft) 97,87 %
07.11.2015 09:36 16,5 C 17,2 C 15,0 C 97 % 1 lf 1022,3 hPa 0,0 l/m 0 min 0 min 61 W/m 10,5 km/h (2 Bft) 95,65 %
07.11.2015 09:38 16,5 C 17,2 C 15,0 C 97 % 1 lf 1022,3 hPa 0,0 l/m 0 min 0 min 62 W/m 8,4 km/h (2 Bft) 93,62 %
07.11.2015 09:40 16,5 C 17,2 C 15,0 C 97 % 1 lf 1022,2 hPa 0,0 l/m 0 min 0 min 65 W/m 10,5 km/h (2 Bft) 93,62 %
07.11.2015 09:42 16,6 C 17,2 C 15,0 C 97 % 1 lf 1022,2 hPa 0,0 l/m 0 min 0 min 73 W/m 8,4 km/h (2 Bft) 97,87 %
07.11.2015 09:44 16,6 C 17,8 C 15,0 C 97 % 1 lf 1022,2 hPa 0,0 l/m 0 min 0 min 76 W/m 12,6 km/h (3 Bft) 100,00 %
07.11.2015 09:46 16,6 C 17,8 C 15,0 C 97 % 0 lf 1022,2 hPa 0,0 l/m 0 min 0 min 77 W/m 12,6 km/h (3 Bft) 100,00 %
07.11.2015 09:48 16,6 C 17,8 C 15,6 C 97 % 0 lf 1022,2 hPa 0,0 l/m 0 min 0 min 78 W/m 14,6 km/h (3 Bft) 97,83 %
07.11.2015 09:50 16,6 C 17,8 C 15,6 C 97 % 1 lf 1022,3 hPa 0,0 l/m 0 min 0 min 65 W/m 10,5 km/h (2 Bft) 95,74 %
07.11.2015 09:52 16,6 C 17,8 C 15,6 C 97 % 0 lf 1022,2 hPa 0,0 l/m 0 min 0 min 70 W/m 8,4 km/h (2 Bft) 95,74 %
07.11.2015 09:54 16,7 C 17,8 C 15,6 C 97 % 0 lf 1022,1 hPa 0,0 l/m 0 min 0 min 64 W/m 10,5 km/h (2 Bft) 97,87 %
07.11.2015 09:56 16,7 C 17,2 C 15,6 C 97 % 0 lf 1022,1 hPa 0,0 l/m 0 min 0 min 65 W/m 14,6 km/h (3 Bft) 100,00 %
07.11.2015 09:58 16,7 C 17,8 C 15,6 C 97 % 0 lf 1022,2 hPa 0,0 l/m 0 min 0 min 69 W/m 6,3 km/h (2 Bft) 97,87 %
07.11.2015 10:00 16,7 C 17,8 C 16,1 C 97 % 0 lf 1022,2 hPa 0,0 l/m 0 min 0 min 79 W/m 6,3 km/h (2 Bft) 97,83 %
07.11.2015 10:02 16,7 C 17,8 C 16,1 C 97 % 0 lf 1022,3 hPa 0,0 l/m 0 min 0 min 79 W/m 12,6 km/h (3 Bft) 97,87 %
07.11.2015 10:04 16,7 C 17,8 C 16,1 C 97 % 0 lf 1022,2 hPa 0,0 l/m 0 min 0 min 73 W/m 8,4 km/h (2 Bft) 97,87 %
07.11.2015 10:06 16,8 C 17,8 C 16,1 C 97 % 0 lf 1022,1 hPa 0,0 l/m 0 min 0 min 89 W/m 14,6 km/h (3 Bft) 93,62 %
07.11.2015 10:08 16,8 C 17,8 C 16,1 C 97 % 0 lf 1022,0 hPa 0,0 l/m 0 min 0 min 86 W/m 12,6 km/h (3 Bft) 95,74 %
07.11.2015 10:10 16,8 C 17,8 C 16,1 C 97 % 0 lf 1022,0 hPa 0,0 l/m 0 min 0 min 93 W/m 12,6 km/h (3 Bft) 97,83 %
07.11.2015 10:12 16,8 C 17,8 C 16,1 C 97 % 0 lf 1022,0 hPa 0,0 l/m 0 min 0 min 99 W/m 14,6 km/h (3 Bft) 97,87 %
07.11.2015 10:14 16,8 C 18,3 C 16,7 C 97 % 0 lf 1021,9 hPa 0,0 l/m 0 min 0 min 110 W/m 8,4 km/h (2 Bft) 95,74 %
07.11.2015 10:16 16,9 C 18,3 C 16,7 C 97 % 0 lf 1022,0 hPa 0,0 l/m 0 min 0 min 120 W/m 12,6 km/h (3 Bft) 100,00 %
07.11.2015 10:18 16,9 C 18,3 C 16,7 C 96 % 0 lf 1022,1 hPa 0,0 l/m 0 min 0 min 119 W/m 12,6 km/h (3 Bft) 97,87 %
07.11.2015 10:20 16,9 C 18,3 C 16,7 C 97 % 0 lf 1022,0 hPa 0,0 l/m 0 min 0 min 118 W/m 12,6 km/h (3 Bft) 93,62 %
07.11.2015 10:22 16,9 C 18,3 C 16,7 C 97 % 0 lf 1022,0 hPa 0,0 l/m 0 min 0 min 120 W/m 12,6 km/h (3 Bft) 97,83 %
07.11.2015 10:24 17,0 C 18,3 C 16,7 C 96 % 0 lf 1022,0 hPa 0,0 l/m 0 min 0 min 130 W/m 10,5 km/h (2 Bft) 91,49 %
07.11.2015 10:26 17,0 C 18,3 C 16,7 C 96 % 0 lf 1022,0 hPa 0,0 l/m 2 min 0 min 160 W/m 16,7 km/h (3 Bft) 95,74 %
07.11.2015 10:28 17,1 C 18,3 C 16,7 C 96 % 0 lf 1021,9 hPa 0,0 l/m 2 min 0 min 190 W/m 12,6 km/h (3 Bft) 95,74 %
07.11.2015 10:30 17,1 C 18,9 C 17,2 C 96 % 0 lf 1021,9 hPa 0,0 l/m 2 min 0 min 162 W/m 14,6 km/h (3 Bft) 95,74 %
07.11.2015 10:32 17,1 C 18,9 C 16,7 C 96 % 0 lf 1021,9 hPa 0,0 l/m 0 min 0 min 132 W/m 14,6 km/h (3 Bft) 92,45 %
07.11.2015 10:34 17,2 C 18,9 C 16,7 C 96 % 0 lf 1021,9 hPa 0,0 l/m 0 min 0 min 127 W/m 16,7 km/h (3 Bft) 95,65 %
07.11.2015 10:36 17,2 C 18,9 C 16,7 C 96 % 0 lf 1021,9 hPa 0,0 l/m 0 min 0 min 137 W/m 18,8 km/h (3 Bft) 90,20 %
07.11.2015 10:38 17,2 C 18,3 C 16,7 C 96 % 0 lf 1021,9 hPa 0,0 l/m 0 min 0 min 143 W/m 18,8 km/h (3 Bft) 95,74 %
07.11.2015 10:40 17,2 C 18,3 C 16,7 C 96 % 0 lf 1021,9 hPa 0,0 l/m 0 min 0 min 143 W/m 14,6 km/h (3 Bft) 97,87 %
07.11.2015 10:42 17,3 C 18,9 C 17,2 C 96 % 0 lf 1022,0 hPa 0,0 l/m 0 min 0 min 140 W/m 12,6 km/h (3 Bft) 97,87 %
07.11.2015 10:44 17,3 C 18,9 C 17,2 C 96 % 0 lf 1021,9 hPa 0,0 l/m 0 min 0 min 152 W/m 14,6 km/h (3 Bft) 97,87 %
07.11.2015 10:46 17,3 C 18,9 C 17,2 C 96 % 0 lf 1021,9 hPa 0,0 l/m 0 min 0 min 155 W/m 12,6 km/h (3 Bft) 93,48 %
07.11.2015 10:48 17,4 C 18,9 C 17,2 C 95 % 0 lf 1021,9 hPa 0,0 l/m 0 min 0 min 162 W/m 23,0 km/h (4 Bft) 95,74 %
07.11.2015 10:50 17,4 C 18,9 C 17,2 C 95 % 0 lf 1021,8 hPa 0,0 l/m 0 min 0 min 155 W/m 14,6 km/h (3 Bft) 97,87 %
07.11.2015 10:52 17,4 C 18,9 C 17,2 C 95 % 0 lf 1021,9 hPa 0,0 l/m 0 min 0 min 147 W/m 16,7 km/h (3 Bft) 95,92 %
07.11.2015 10:54 17,5 C 18,9 C 17,2 C 95 % 0 lf 1021,9 hPa 0,0 l/m 0 min 0 min 140 W/m 14,6 km/h (3 Bft) 93,48 %
07.11.2015 10:56 17,6 C 18,9 C 17,2 C 95 % 0 lf 1022,0 hPa 0,0 l/m 0 min 0 min 123 W/m 12,6 km/h (3 Bft) 95,74 %
07.11.2015 10:58 17,6 C 18,9 C 17,2 C 95 % 0 lf 1022,0 hPa 0,0 l/m 0 min 0 min 105 W/m 16,7 km/h (3 Bft) 97,87 %
07.11.2015 11:00 17,6 C 18,9 C 17,2 C 95 % 0 lf 1022,0 hPa 0,0 l/m 0 min 0 min 86 W/m 14,6 km/h (3 Bft) 95,74 %
07.11.2015 11:02 17,7 C 18,9 C 17,2 C 95 % 0 lf 1022,1 hPa 0,0 l/m 0 min 0 min 90 W/m 10,5 km/h (2 Bft) 97,87 %
07.11.2015 11:04 17,7 C 18,9 C 17,2 C 94 % 0 lf 1022,1 hPa 0,0 l/m 0 min 0 min 98 W/m 18,8 km/h (3 Bft) 95,74 %
07.11.2015 11:06 17,7 C 18,9 C 17,2 C 94 % 0 lf 1022,0 hPa 0,0 l/m 0 min 0 min 113 W/m 14,6 km/h (3 Bft) 95,65 %
07.11.2015 11:08 17,7 C 18,9 C 17,2 C 94 % 0 lf 1022,0 hPa 0,0 l/m 0 min 0 min 107 W/m 10,5 km/h (2 Bft) 93,62 %
07.11.2015 11:10 17,8 C 18,9 C 17,2 C 94 % 0 lf 1022,0 hPa 0,0 l/m 0 min 0 min 81 W/m 12,6 km/h (3 Bft) 95,74 %
07.11.2015 11:12 17,8 C 18,9 C 16,7 C 94 % 0 lf 1022,1 hPa 0,0 l/m 0 min 0 min 53 W/m 12,6 km/h (3 Bft) 93,62 %
07.11.2015 11:14 17,8 C 18,9 C 16,7 C 94 % 0 lf 1022,0 hPa 0,0 l/m 0 min 0 min 57 W/m 16,7 km/h (3 Bft) 95,74 %
07.11.2015 11:16 17,8 C 18,9 C 16,7 C 94 % 0 lf 1022,0 hPa 0,0 l/m 0 min 0 min 67 W/m 12,6 km/h (3 Bft) 93,62 %
07.11.2015 11:18 17,8 C 18,3 C 16,7 C 94 % 0 lf 1022,0 hPa 0,0 l/m 0 min 0 min 47 W/m 14,6 km/h (3 Bft) 91,30 %
07.11.2015 11:20 17,8 C 18,3 C 16,7 C 94 % 0 lf 1022,0 hPa 0,0 l/m 0 min 0 min 34 W/m 12,6 km/h (3 Bft) 95,74 %
07.11.2015 11:22 17,8 C 18,3 C 16,7 C 93 % 0 lf 1022,0 hPa 0,0 l/m 0 min 0 min 35 W/m 10,5 km/h (2 Bft) 97,87 %
07.11.2015 11:24 17,9 C 18,3 C 16,7 C 93 % 0 lf 1021,9 hPa 0,0 l/m 0 min 0 min 38 W/m 10,5 km/h (2 Bft) 93,62 %
07.11.2015 11:26 17,9 C 18,3 C 16,7 C 93 % 0 lf 1021,9 hPa 0,0 l/m 0 min 0 min 51 W/m 14,6 km/h (3 Bft) 97,87 %
07.11.2015 11:28 17,9 C 18,3 C 16,7 C 93 % 0 lf 1021,9 hPa 0,0 l/m 0 min 0 min 74 W/m 14,6 km/h (3 Bft) 97,87 %
07.11.2015 11:30 17,9 C 18,3 C 16,7 C 93 % 0 lf 1021,9 hPa 0,0 l/m 0 min 0 min 73 W/m 16,7 km/h (3 Bft) 95,65 %
07.11.2015 11:32 17,9 C 18,3 C 16,7 C 93 % 0 lf 1021,9 hPa 0,0 l/m 0 min 0 min 63 W/m 16,7 km/h (3 Bft) 93,62 %
07.11.2015 11:34 17,9 C 18,3 C 16,7 C 93 % 0 lf 1021,9 hPa 0,0 l/m 0 min 0 min 48 W/m 12,6 km/h (3 Bft) 93,62 %
07.11.2015 11:36 17,9 C 18,3 C 16,7 C 93 % 0 lf 1021,9 hPa 0,0 l/m 0 min 0 min 44 W/m 20,9 km/h (4 Bft) 97,87 %
07.11.2015 11:38 17,9 C 18,3 C 16,7 C 93 % 0 lf 1021,9 hPa 0,0 l/m 0 min 0 min 54 W/m 10,5 km/h (2 Bft) 97,87 %
07.11.2015 11:40 17,9 C 18,3 C 16,7 C 93 % 0 lf 1021,9 hPa 0,0 l/m 0 min 0 min 66 W/m 12,6 km/h (3 Bft) 97,87 %
07.11.2015 11:42 17,9 C 18,9 C 16,7 C 93 % 0 lf 1021,9 hPa 0,0 l/m 0 min 0 min 95 W/m 10,5 km/h (2 Bft) 100,00 %
07.11.2015 11:44 17,9 C 18,9 C 17,2 C 93 % 0 lf 1021,9 hPa 0,0 l/m 0 min 0 min 127 W/m 16,7 km/h (3 Bft) 93,62 %
07.11.2015 11:46 18,0 C 18,9 C 17,2 C 93 % 0 lf 1021,9 hPa 0,0 l/m 0 min 0 min 122 W/m 12,6 km/h (3 Bft) 100,00 %
07.11.2015 11:48 18,0 C 18,9 C 17,2 C 93 % 0 lf 1021,9 hPa 0,0 l/m 0 min 0 min 128 W/m 16,7 km/h (3 Bft) 97,87 %
07.11.2015 11:50 18,0 C 19,4 C 17,2 C 93 % 0 lf 1021,9 hPa 0,0 l/m 0 min 0 min 113 W/m 10,5 km/h (2 Bft) 100,00 %
07.11.2015 11:52 18,1 C 18,9 C 17,2 C 92 % 0 lf 1022,0 hPa 0,0 l/m 0 min 0 min 89 W/m 10,5 km/h (2 Bft) 97,83 %
07.11.2015 11:54 18,1 C 18,9 C 17,2 C 92 % 0 lf 1021,9 hPa 0,0 l/m 0 min 0 min 79 W/m 20,9 km/h (4 Bft) 97,87 %
07.11.2015 11:56 18,1 C 18,9 C 17,2 C 93 % 0 lf 1021,9 hPa 0,0 l/m 0 min 0 min 72 W/m 14,6 km/h (3 Bft) 97,87 %
07.11.2015 11:58 18,1 C 18,9 C 17,2 C 92 % 0 lf 1021,9 hPa 0,0 l/m 0 min 0 min 83 W/m 12,6 km/h (3 Bft) 95,74 %
07.11.2015 12:00 18,1 C 18,9 C 17,2 C 92 % 0 lf 1021,9 hPa 0,0 l/m 0 min 0 min 102 W/m 16,7 km/h (3 Bft) 97,87 %
07.11.2015 12:02 18,1 C 18,9 C 17,2 C 92 % 0 lf 1021,9 hPa 0,0 l/m 0 min 0 min 82 W/m 10,5 km/h (2 Bft) 95,74 %
07.11.2015 12:04 18,2 C 18,9 C 17,2 C 92 % 0 lf 1021,9 hPa 0,0 l/m 0 min 0 min 75 W/m 12,6 km/h (3 Bft) 97,83 %
07.11.2015 12:06 18,2 C 18,9 C 17,2 C 92 % 0 lf 1021,9 hPa 0,0 l/m 0 min 0 min 70 W/m 10,5 km/h (2 Bft) 97,87 %
07.11.2015 12:08 18,2 C 18,9 C 17,2 C 92 % 0 lf 1021,9 hPa 0,0 l/m 0 min 0 min 79 W/m 14,6 km/h (3 Bft) 97,87 %
07.11.2015 12:10 18,2 C 18,9 C 17,2 C 92 % 0 lf 1021,9 hPa 0,0 l/m 0 min 0 min 95 W/m 10,5 km/h (2 Bft) 95,74 %
07.11.2015 12:12 18,2 C 18,9 C 17,2 C 92 % 0 lf 1021,8 hPa 0,0 l/m 0 min 0 min 86 W/m 12,6 km/h (3 Bft) 97,87 %
07.11.2015 12:14 18,2 C 18,9 C 17,2 C 92 % 0 lf 1021,8 hPa 0,0 l/m 0 min 0 min 75 W/m 18,8 km/h (3 Bft) 95,74 %
07.11.2015 12:16 18,2 C 18,9 C 17,2 C 92 % 0 lf 1021,7 hPa 0,0 l/m 0 min 0 min 83 W/m 14,6 km/h (3 Bft) 97,83 %
07.11.2015 12:18 18,3 C 18,9 C 17,2 C 91 % 0 lf 1021,8 hPa 0,0 l/m 0 min 0 min 83 W/m 12,6 km/h (3 Bft) 97,87 %
07.11.2015 12:20 18,3 C 18,9 C 17,2 C 91 % 0 lf 1021,8 hPa 0,0 l/m 0 min 0 min 76 W/m 33,5 km/h (5 Bft) 95,74 %
07.11.2015 12:22 18,3 C 18,9 C 17,2 C 91 % 0 lf 1021,8 hPa 0,0 l/m 0 min 0 min 70 W/m 18,8 km/h (3 Bft) 95,74 %
07.11.2015 12:24 18,3 C 18,9 C 17,2 C 91 % 0 lf 1021,7 hPa 0,0 l/m 0 min 0 min 81 W/m 18,8 km/h (3 Bft) 93,62 %
07.11.2015 12:26 18,3 C 18,9 C 17,2 C 91 % 0 lf 1021,6 hPa 0,0 l/m 0 min 0 min 105 W/m 16,7 km/h (3 Bft) 97,87 %
07.11.2015 12:28 18,3 C 18,9 C 17,2 C 91 % 0 lf 1021,6 hPa 0,0 l/m 0 min 0 min 118 W/m 14,6 km/h (3 Bft) 97,83 %
07.11.2015 12:30 18,3 C 19,4 C 17,2 C 91 % 0 lf 1021,5 hPa 0,0 l/m 0 min 0 min 123 W/m 16,7 km/h (3 Bft) 97,87 %
07.11.2015 12:32 18,3 C 19,4 C 17,2 C 91 % 0 lf 1021,5 hPa 0,0 l/m 0 min 0 min 117 W/m 12,6 km/h (3 Bft) 97,14 %
07.11.2015 12:34 18,4 C 19,4 C 17,2 C 91 % 0 lf 1021,6 hPa 0,0 l/m 0 min 0 min 100 W/m 16,7 km/h (3 Bft) 97,87 %
07.11.2015 12:36 18,4 C 18,9 C 17,2 C 91 % 0 lf 1021,6 hPa 0,0 l/m 0 min 0 min 81 W/m 18,8 km/h (3 Bft) 91,53 %
07.11.2015 12:38 18,4 C 18,9 C 17,2 C 91 % 0 lf 1021,5 hPa 0,0 l/m 0 min 0 min 84 W/m 23,0 km/h (4 Bft) 97,14 %
07.11.2015 12:40 18,4 C 18,9 C 17,2 C 90 % 0 lf 1021,6 hPa 0,0 l/m 0 min 0 min 92 W/m 16,7 km/h (3 Bft) 93,62 %
07.11.2015 12:42 18,4 C 18,9 C 17,2 C 90 % 0 lf 1021,6 hPa 0,0 l/m 0 min 0 min 91 W/m 16,7 km/h (3 Bft) 91,49 %
07.11.2015 12:44 18,4 C 19,4 C 17,2 C 90 % 0 lf 1021,6 hPa 0,0 l/m 0 min 0 min 101 W/m 18,8 km/h (3 Bft) 93,48 %
07.11.2015 12:46 18,4 C 19,4 C 17,2 C 90 % 0 lf 1021,6 hPa 0,0 l/m 0 min 0 min 108 W/m 14,6 km/h (3 Bft) 93,62 %
07.11.2015 12:48 18,4 C 19,4 C 17,2 C 90 % 0 lf 1021,6 hPa 0,0 l/m 0 min 0 min 104 W/m 25,1 km/h (4 Bft) 98,31 %
07.11.2015 12:50 18,5 C 19,4 C 17,2 C 90 % 0 lf 1021,6 hPa 0,0 l/m 0 min 0 min 114 W/m 23,0 km/h (4 Bft) 97,14 %
07.11.2015 12:52 18,5 C 19,4 C 17,2 C 90 % 0 lf 1021,6 hPa 0,0 l/m 0 min 0 min 102 W/m 14,6 km/h (3 Bft) 98,28 %
07.11.2015 12:54 18,5 C 19,4 C 17,2 C 90 % 0 lf 1021,5 hPa 0,0 l/m 0 min 0 min 91 W/m 20,9 km/h (4 Bft) 94,29 %
07.11.2015 12:56 18,5 C 19,4 C 17,2 C 90 % 0 lf 1021,4 hPa 0,0 l/m 0 min 0 min 85 W/m 16,7 km/h (3 Bft) 95,74 %
07.11.2015 12:58 18,5 C 19,4 C 17,2 C 90 % 0 lf 1021,5 hPa 0,0 l/m 0 min 0 min 78 W/m 14,6 km/h (3 Bft) 93,62 %
07.11.2015 13:00 18,6 C 19,4 C 17,2 C 90 % 0 lf 1021,5 hPa 0,0 l/m 0 min 0 min 82 W/m 20,9 km/h (4 Bft) 95,74 %
07.11.2015 13:02 18,6 C 19,4 C 17,2 C 89 % 0 lf 1021,4 hPa 0,0 l/m 0 min 0 min 83 W/m 14,6 km/h (3 Bft) 95,74 %
07.11.2015 13:04 18,6 C 19,4 C 17,2 C 89 % 0 lf 1021,5 hPa 0,0 l/m 0 min 0 min 85 W/m 12,6 km/h (3 Bft) 97,87 %
07.11.2015 13:06 18,6 C 19,4 C 17,2 C 89 % 0 lf 1021,5 hPa 0,0 l/m 0 min 0 min 91 W/m 12,6 km/h (3 Bft) 96,55 %
07.11.2015 13:08 18,6 C 19,4 C 17,2 C 89 % 0 lf 1021,5 hPa 0,0 l/m 0 min 0 min 97 W/m 12,6 km/h (3 Bft) 94,29 %
07.11.2015 13:10 18,6 C 19,4 C 17,8 C 89 % 0 lf 1021,5 hPa 0,0 l/m 0 min 0 min 66 W/m 8,4 km/h (2 Bft) 95,74 %
07.11.2015 13:12 18,6 C 18,9 C 17,2 C 90 % 0 lf 1021,5 hPa 0,0 l/m 0 min 0 min 51 W/m 16,7 km/h (3 Bft) 91,53 %
07.11.2015 13:14 18,7 C 18,9 C 17,2 C 89 % 0 lf 1021,6 hPa 0,0 l/m 0 min 0 min 42 W/m 18,8 km/h (3 Bft) 97,14 %
07.11.2015 13:16 18,6 C 18,9 C 17,2 C 89 % 0 lf 1021,6 hPa 0,0 l/m 0 min 0 min 40 W/m 16,7 km/h (3 Bft) 89,36 %
07.11.2015 13:18 18,7 C 18,9 C 17,2 C 89 % 0 lf 1021,5 hPa 0,0 l/m 0 min 0 min 46 W/m 18,8 km/h (3 Bft) 95,65 %
07.11.2015 13:20 18,6 C 18,9 C 17,2 C 89 % 0 lf 1021,5 hPa 0,0 l/m 0 min 0 min 47 W/m 16,7 km/h (3 Bft) 91,49 %
07.11.2015 13:22 18,7 C 18,9 C 17,2 C 89 % 0 lf 1021,4 hPa 0,0 l/m 0 min 0 min 52 W/m 20,9 km/h (4 Bft) 98,31 %
07.11.2015 13:24 18,6 C 18,9 C 17,2 C 89 % 0 lf 1021,4 hPa 0,0 l/m 0 min 0 min 58 W/m 20,9 km/h (4 Bft) 97,14 %
07.11.2015 13:26 18,6 C 18,9 C 17,2 C 89 % 0 lf 1021,3 hPa 0,0 l/m 0 min 0 min 64 W/m 20,9 km/h (4 Bft) 95,74 %
07.11.2015 13:28 18,6 C 18,9 C 17,2 C 89 % 0 lf 1021,4 hPa 0,0 l/m 0 min 0 min 64 W/m 23,0 km/h (4 Bft) 95,74 %
07.11.2015 13:30 18,7 C 18,9 C 17,2 C 89 % 0 lf 1021,3 hPa 0,0 l/m 0 min 0 min 64 W/m 20,9 km/h (4 Bft) 97,83 %
07.11.2015 13:32 18,7 C 18,9 C 17,2 C 89 % 0 lf 1021,2 hPa 0,0 l/m 0 min 0 min 68 W/m 14,6 km/h (3 Bft) 94,92 %
07.11.2015 13:34 18,7 C 18,9 C 17,2 C 89 % 0 lf 1021,2 hPa 0,0 l/m 0 min 0 min 63 W/m 12,6 km/h (3 Bft) 97,14 %
07.11.2015 13:36 18,7 C 18,9 C 17,2 C 89 % 0 lf 1021,2 hPa 0,0 l/m 0 min 0 min 64 W/m 14,6 km/h (3 Bft) 95,74 %
07.11.2015 13:38 18,7 C 18,9 C 17,2 C 89 % 0 lf 1021,1 hPa 0,0 l/m 0 min 0 min 70 W/m 18,8 km/h (3 Bft) 100,00 %
07.11.2015 13:40 18,7 C 18,9 C 17,2 C 89 % 0 lf 1021,1 hPa 0,0 l/m 0 min 0 min 72 W/m 18,8 km/h (3 Bft) 100,00 %
07.11.2015 13:42 18,7 C 18,9 C 17,2 C 89 % 0 lf 1021,2 hPa 0,0 l/m 0 min 0 min 69 W/m 16,7 km/h (3 Bft) 100,00 %
07.11.2015 13:44 18,7 C 18,9 C 17,2 C 89 % 0 lf 1021,2 hPa 0,0 l/m 0 min 0 min 66 W/m 29,3 km/h (5 Bft) 100,00 %
07.11.2015 13:46 18,7 C 18,9 C 17,2 C 89 % 0 lf 1021,3 hPa 0,0 l/m 0 min 0 min 77 W/m 25,1 km/h (4 Bft) 100,00 %
07.11.2015 13:48 18,7 C 18,9 C 17,2 C 89 % 0 lf 1021,2 hPa 0,0 l/m 0 min 0 min 92 W/m 18,8 km/h (3 Bft) 95,74 %
07.11.2015 13:50 18,7 C 19,4 C 17,2 C 89 % 0 lf 1021,2 hPa 0,0 l/m 0 min 0 min 107 W/m 25,1 km/h (4 Bft) 97,87 %
07.11.2015 13:52 18,7 C 19,4 C 17,2 C 89 % 0 lf 1021,1 hPa 0,0 l/m 0 min 0 min 127 W/m 20,9 km/h (4 Bft) 97,87 %
07.11.2015 13:54 18,7 C 20,0 C 17,8 C 89 % 0 lf 1021,1 hPa 0,0 l/m 0 min 0 min 150 W/m 12,6 km/h (3 Bft) 100,00 %
07.11.2015 13:56 18,7 C 20,0 C 17,8 C 89 % 0 lf 1021,0 hPa 0,0 l/m 0 min 0 min 152 W/m 18,8 km/h (3 Bft) 97,87 %
07.11.2015 13:58 18,7 C 20,0 C 17,8 C 89 % 0 lf 1021,0 hPa 0,0 l/m 0 min 0 min 150 W/m 16,7 km/h (3 Bft) 95,74 %
07.11.2015 14:00 18,8 C 20,0 C 17,8 C 89 % 0 lf 1021,0 hPa 0,0 l/m 0 min 0 min 142 W/m 20,9 km/h (4 Bft) 94,92 %
07.11.2015 14:02 18,8 C 20,0 C 17,8 C 89 % 0 lf 1021,0 hPa 0,0 l/m 0 min 0 min 149 W/m 14,6 km/h (3 Bft) 100,00 %
07.11.2015 14:04 18,8 C 20,0 C 17,8 C 88 % 0 lf 1021,0 hPa 0,0 l/m 0 min 0 min 151 W/m 25,1 km/h (4 Bft) 95,74 %
07.11.2015 14:06 18,8 C 20,0 C 17,8 C 88 % 0 lf 1021,0 hPa 0,0 l/m 0 min 0 min 131 W/m 18,8 km/h (3 Bft) 97,83 %
07.11.2015 14:08 18,8 C 20,0 C 17,8 C 88 % 0 lf 1021,1 hPa 0,0 l/m 0 min 0 min 123 W/m 18,8 km/h (3 Bft) 97,87 %
07.11.2015 14:10 18,8 C 20,0 C 17,8 C 88 % 0 lf 1021,1 hPa 0,0 l/m 0 min 0 min 119 W/m 16,7 km/h (3 Bft) 97,87 %
07.11.2015 14:12 18,9 C 20,0 C 17,8 C 88 % 0 lf 1021,2 hPa 0,0 l/m 0 min 0 min 121 W/m 18,8 km/h (3 Bft) 94,92 %
07.11.2015 14:14 18,9 C 20,0 C 17,8 C 88 % 0 lf 1021,1 hPa 0,0 l/m 0 min 0 min 125 W/m 20,9 km/h (4 Bft) 97,14 %
07.11.2015 14:16 18,9 C 20,0 C 17,8 C 88 % 0 lf 1021,1 hPa 0,0 l/m 0 min 0 min 125 W/m 27,2 km/h (4 Bft) 93,48 %
07.11.2015 14:18 18,9 C 20,0 C 17,8 C 88 % 0 lf 1021,1 hPa 0,0 l/m 0 min 0 min 122 W/m 14,6 km/h (3 Bft) 93,62 %
07.11.2015 14:20 18,9 C 20,0 C 17,8 C 88 % 0 lf 1021,0 hPa 0,0 l/m 0 min 0 min 113 W/m 14,6 km/h (3 Bft) 95,74 %
07.11.2015 14:22 18,9 C 20,0 C 17,8 C 88 % 0 lf 1021,0 hPa 0,0 l/m 0 min 0 min 103 W/m 25,1 km/h (4 Bft) 91,53 %
07.11.2015 14:24 18,9 C 19,4 C 17,8 C 88 % 0 lf 1021,0 hPa 0,0 l/m 0 min 0 min 92 W/m 20,9 km/h (4 Bft) 91,43 %
07.11.2015 14:26 18,9 C 19,4 C 17,8 C 88 % 0 lf 1021,0 hPa 0,0 l/m 0 min 0 min 83 W/m 27,2 km/h (4 Bft) 95,74 %
07.11.2015 14:28 18,9 C 19,4 C 17,2 C 88 % 0 lf 1021,0 hPa 0,0 l/m 0 min 0 min 79 W/m 20,9 km/h (4 Bft) 95,65 %
07.11.2015 14:30 18,9 C 19,4 C 17,2 C 88 % 0 lf 1021,0 hPa 0,0 l/m 0 min 0 min 80 W/m 14,6 km/h (3 Bft) 95,74 %
07.11.2015 14:32 18,9 C 19,4 C 17,2 C 88 % 0 lf 1020,9 hPa 0,0 l/m 0 min 0 min 83 W/m 16,7 km/h (3 Bft) 95,74 %
07.11.2015 14:34 18,9 C 19,4 C 17,2 C 87 % 0 lf 1020,8 hPa 0,0 l/m 0 min 0 min 85 W/m 18,8 km/h (3 Bft) 97,87 %
07.11.2015 14:36 18,9 C 19,4 C 17,2 C 87 % 0 lf 1020,8 hPa 0,0 l/m 0 min 0 min 85 W/m 18,8 km/h (3 Bft) 98,31 %
07.11.2015 14:38 18,9 C 19,4 C 17,2 C 87 % 0 lf 1020,8 hPa 0,0 l/m 0 min 0 min 85 W/m 16,7 km/h (3 Bft) 97,14 %
07.11.2015 14:40 18,9 C 19,4 C 17,2 C 87 % 0 lf 1020,9 hPa 0,0 l/m 0 min 0 min 84 W/m 16,7 km/h (3 Bft) 91,30 %
07.11.2015 14:42 18,9 C 19,4 C 17,2 C 87 % 0 lf 1020,8 hPa 0,0 l/m 0 min 0 min 83 W/m 18,8 km/h (3 Bft) 97,87 %
07.11.2015 14:44 18,9 C 19,4 C 17,2 C 87 % 0 lf 1020,8 hPa 0,0 l/m 0 min 0 min 78 W/m 14,6 km/h (3 Bft) 97,87 %
07.11.2015 14:46 18,9 C 19,4 C 17,2 C 88 % 0 lf 1020,8 hPa 0,0 l/m 0 min 0 min 73 W/m 12,6 km/h (3 Bft) 95,74 %
07.11.2015 14:48 18,9 C 18,9 C 17,2 C 88 % 0 lf 1020,8 hPa 0,0 l/m 0 min 0 min 69 W/m 16,7 km/h (3 Bft) 91,49 %
07.11.2015 14:50 18,8 C 18,9 C 17,2 C 88 % 0 lf 1020,8 hPa 0,0 l/m 0 min 0 min 65 W/m 23,0 km/h (4 Bft) 97,87 %
07.11.2015 14:52 18,8 C 18,9 C 17,2 C 87 % 0 lf 1020,8 hPa 0,0 l/m 0 min 0 min 63 W/m 14,6 km/h (3 Bft) 97,83 %
07.11.2015 14:54 18,8 C 18,9 C 17,2 C 88 % 0 lf 1020,7 hPa 0,0 l/m 0 min 0 min 62 W/m 14,6 km/h (3 Bft) 100,00 %
07.11.2015 14:56 18,8 C 18,9 C 17,2 C 87 % 0 lf 1020,8 hPa 0,0 l/m 0 min 0 min 60 W/m 8,4 km/h (2 Bft) 100,00 %
07.11.2015 14:58 18,8 C 18,9 C 17,2 C 88 % 0 lf 1020,9 hPa 0,0 l/m 0 min 0 min 57 W/m 10,5 km/h (2 Bft) 93,62 %
07.11.2015 15:00 18,8 C 18,9 C 17,2 C 88 % 0 lf 1021,0 hPa 0,0 l/m 0 min 0 min 51 W/m 12,6 km/h (3 Bft) 100,00 %
07.11.2015 15:02 18,8 C 18,9 C 17,2 C 88 % 0 lf 1021,0 hPa 0,0 l/m 0 min 0 min 52 W/m 14,6 km/h (3 Bft) 100,00 %
07.11.2015 15:04 18,8 C 18,9 C 17,2 C 88 % 0 lf 1021,0 hPa 0,0 l/m 0 min 0 min 54 W/m 14,6 km/h (3 Bft) 95,65 %
07.11.2015 15:06 18,8 C 18,9 C 17,2 C 88 % 0 lf 1021,0 hPa 0,0 l/m 0 min 0 min 52 W/m 10,5 km/h (2 Bft) 97,87 %
07.11.2015 15:08 18,8 C 18,9 C 17,2 C 88 % 0 lf 1021,0 hPa 0,0 l/m 0 min 0 min 50 W/m 12,6 km/h (3 Bft) 91,49 %
07.11.2015 15:10 18,8 C 18,9 C 17,2 C 88 % 0 lf 1020,9 hPa 0,0 l/m 0 min 0 min 49 W/m 14,6 km/h (3 Bft) 93,62 %
07.11.2015 15:12 18,8 C 18,9 C 17,2 C 88 % 0 lf 1020,9 hPa 0,0 l/m 0 min 0 min 49 W/m 18,8 km/h (3 Bft) 93,62 %
07.11.2015 15:14 18,8 C 18,9 C 17,2 C 88 % 0 lf 1020,8 hPa 0,0 l/m 0 min 0 min 49 W/m 14,6 km/h (3 Bft) 93,62 %
07.11.2015 15:16 18,8 C 18,9 C 17,2 C 88 % 0 lf 1020,9 hPa 0,0 l/m 0 min 0 min 49 W/m 12,6 km/h (3 Bft) 91,30 %
07.11.2015 15:18 18,7 C 18,9 C 17,2 C 88 % 0 lf 1020,8 hPa 0,0 l/m 0 min 0 min 55 W/m 14,6 km/h (3 Bft) 95,74 %
07.11.2015 15:20 18,7 C 18,9 C 17,2 C 88 % 0 lf 1020,7 hPa 0,0 l/m 0 min 0 min 62 W/m 12,6 km/h (3 Bft) 95,74 %
07.11.2015 15:22 18,7 C 18,9 C 17,2 C 88 % 0 lf 1020,8 hPa 0,0 l/m 0 min 0 min 62 W/m 14,6 km/h (3 Bft) 93,62 %
07.11.2015 15:24 18,7 C 18,9 C 17,2 C 88 % 0 lf 1020,8 hPa 0,0 l/m 0 min 0 min 55 W/m 16,7 km/h (3 Bft) 93,62 %
07.11.2015 15:26 18,7 C 18,9 C 17,2 C 88 % 0 lf 1020,8 hPa 0,0 l/m 0 min 0 min 52 W/m 18,8 km/h (3 Bft) 95,74 %
07.11.2015 15:28 18,7 C 18,9 C 17,2 C 88 % 0 lf 1020,7 hPa 0,0 l/m 0 min 0 min 57 W/m 16,7 km/h (3 Bft) 93,48 %
07.11.2015 15:30 18,7 C 18,9 C 17,2 C 88 % 0 lf 1020,7 hPa 0,0 l/m 0 min 0 min 61 W/m 14,6 km/h (3 Bft) 91,49 %
07.11.2015 15:32 18,7 C 18,9 C 17,2 C 88 % 0 lf 1020,8 hPa 0,0 l/m 0 min 0 min 61 W/m 18,8 km/h (3 Bft) 93,62 %
07.11.2015 15:34 18,7 C 18,9 C 17,2 C 88 % 0 lf 1020,8 hPa 0,0 l/m 0 min 0 min 54 W/m 14,6 km/h (3 Bft) 93,62 %
07.11.2015 15:36 18,7 C 18,9 C 17,2 C 88 % 0 lf 1020,8 hPa 0,0 l/m 0 min 0 min 48 W/m 16,7 km/h (3 Bft) 91,49 %
07.11.2015 15:38 18,7 C 18,9 C 17,2 C 88 % 0 lf 1020,8 hPa 0,0 l/m 0 min 0 min 38 W/m 18,8 km/h (3 Bft) 93,48 %
07.11.2015 15:40 18,7 C 18,9 C 17,2 C 88 % 0 lf 1020,8 hPa 0,0 l/m 0 min 0 min 33 W/m 18,8 km/h (3 Bft) 91,49 %
07.11.2015 15:42 18,7 C 18,9 C 17,2 C 88 % 0 lf 1020,7 hPa 0,0 l/m 0 min 0 min 27 W/m 18,8 km/h (3 Bft) 91,49 %
07.11.2015 15:44 18,7 C 18,9 C 17,2 C 88 % 0 lf 1020,8 hPa 0,0 l/m 0 min 0 min 17 W/m 12,6 km/h (3 Bft) 95,74 %
07.11.2015 15:46 18,7 C 18,9 C 17,2 C 88 % 0 lf 1020,8 hPa 0,0 l/m 0 min 0 min 12 W/m 16,7 km/h (3 Bft) 91,49 %
07.11.2015 15:48 18,7 C 18,9 C 17,2 C 88 % 0 lf 1020,7 hPa 0,0 l/m 0 min 0 min 11 W/m 12,6 km/h (3 Bft) 93,62 %
07.11.2015 15:50 18,7 C 18,9 C 16,7 C 88 % 0 lf 1020,7 hPa 0,0 l/m 0 min 0 min 11 W/m 10,5 km/h (2 Bft) 93,48 %
07.11.2015 15:52 18,7 C 18,9 C 16,7 C 88 % 1 lf 1020,7 hPa 0,0 l/m 0 min 0 min 12 W/m 16,7 km/h (3 Bft) 93,62 %
07.11.2015 15:54 18,7 C 18,9 C 16,7 C 88 % 0 lf 1020,8 hPa 0,0 l/m 0 min 2 min 11 W/m 16,7 km/h (3 Bft) 95,74 %
07.11.2015 15:56 18,7 C 18,9 C 16,7 C 88 % 2 lf 1020,9 hPa 0,0 l/m 0 min 0 min 12 W/m 20,9 km/h (4 Bft) 95,74 %
07.11.2015 15:58 18,7 C 18,3 C 16,7 C 88 % 4 lf 1020,7 hPa 0,0 l/m 0 min 2 min 16 W/m 18,8 km/h (3 Bft) 97,87 %
07.11.2015 16:00 18,7 C 17,8 C 16,1 C 88 % 3 lf 1020,6 hPa 0,0 l/m 0 min 2 min 15 W/m 12,6 km/h (3 Bft) 97,87 %
07.11.2015 16:02 18,7 C 17,2 C 16,1 C 88 % 6 lf 1020,6 hPa 0,0 l/m 0 min 2 min 13 W/m 20,9 km/h (4 Bft) 97,83 %
07.11.2015 16:04 18,6 C 17,2 C 16,1 C 88 % 2 lf 1020,5 hPa 0,0 l/m 0 min 2 min 15 W/m 14,6 km/h (3 Bft) 93,62 %
07.11.2015 16:06 18,6 C 17,2 C 15,6 C 88 % 0 lf 1020,5 hPa 0,0 l/m 0 min 0 min 18 W/m 18,8 km/h (3 Bft) 97,87 %
07.11.2015 16:08 18,6 C 17,2 C 15,6 C 88 % 0 lf 1020,5 hPa 0,0 l/m 0 min 0 min 19 W/m 16,7 km/h (3 Bft) 100,00 %
07.11.2015 16:10 18,6 C 17,8 C 15,6 C 88 % 0 lf 1020,4 hPa 0,0 l/m 0 min 0 min 19 W/m 14,6 km/h (3 Bft) 97,87 %
07.11.2015 16:12 18,6 C 17,8 C 15,6 C 88 % 0 lf 1020,5 hPa 0,0 l/m 0 min 0 min 17 W/m 8,4 km/h (2 Bft) 100,00 %
07.11.2015 16:14 18,5 C 17,8 C 15,6 C 88 % 0 lf 1020,5 hPa 0,0 l/m 0 min 0 min 14 W/m 10,5 km/h (2 Bft) 97,83 %
07.11.2015 16:16 18,5 C 17,8 C 15,6 C 88 % 0 lf 1020,5 hPa 0,0 l/m 0 min 0 min 14 W/m 10,5 km/h (2 Bft) 97,87 %
07.11.2015 16:18 18,4 C 17,8 C 15,6 C 88 % 0 lf 1020,5 hPa 0,0 l/m 0 min 0 min 14 W/m 14,6 km/h (3 Bft) 95,74 %
07.11.2015 16:20 18,4 C 17,8 C 16,1 C 88 % 0 lf 1020,4 hPa 0,0 l/m 0 min 0 min 12 W/m 12,6 km/h (3 Bft) 100,00 %
07.11.2015 16:22 18,4 C 18,3 C 16,1 C 88 % 0 lf 1020,5 hPa 0,0 l/m 0 min 0 min 11 W/m 14,6 km/h (3 Bft) 97,92 %
07.11.2015 16:24 18,4 C 18,3 C 16,1 C 89 % 0 lf 1020,5 hPa 0,0 l/m 0 min 0 min 11 W/m 16,7 km/h (3 Bft) 100,00 %
07.11.2015 16:26 18,4 C 18,3 C 16,1 C 89 % 0 lf 1020,5 hPa 0,0 l/m 0 min 0 min 12 W/m 14,6 km/h (3 Bft) 97,87 %
07.11.2015 16:28 18,4 C 18,3 C 16,1 C 89 % 0 lf 1020,5 hPa 0,0 l/m 0 min 0 min 13 W/m 12,6 km/h (3 Bft) 97,87 %
07.11.2015 16:30 18,4 C 18,3 C 16,1 C 89 % 0 lf 1020,5 hPa 0,0 l/m 0 min 0 min 12 W/m 12,6 km/h (3 Bft) 97,87 %
07.11.2015 16:32 18,3 C 18,3 C 16,7 C 89 % 0 lf 1020,5 hPa 0,0 l/m 0 min 0 min 12 W/m 16,7 km/h (3 Bft) 97,87 %
07.11.2015 16:34 18,3 C 18,3 C 16,7 C 89 % 0 lf 1020,5 hPa 0,0 l/m 0 min 0 min 12 W/m 20,9 km/h (4 Bft) 100,00 %
07.11.2015 16:36 18,3 C 18,3 C 16,7 C 89 % 0 lf 1020,5 hPa 0,0 l/m 0 min 0 min 12 W/m 16,7 km/h (3 Bft) 100,00 %
07.11.2015 16:38 18,3 C 18,3 C 16,7 C 89 % 0 lf 1020,5 hPa 0,0 l/m 0 min 0 min 11 W/m 14,6 km/h (3 Bft) 100,00 %
07.11.2015 16:40 18,3 C 18,3 C 16,7 C 89 % 0 lf 1020,5 hPa 0,0 l/m 0 min 0 min 9 W/m 14,6 km/h (3 Bft) 100,00 %
07.11.2015 16:42 18,3 C 18,3 C 16,7 C 89 % 0 lf 1020,5 hPa 0,0 l/m 0 min 0 min 9 W/m 14,6 km/h (3 Bft) 100,00 %
07.11.2015 16:44 18,3 C 18,3 C 16,7 C 89 % 0 lf 1020,5 hPa 0,0 l/m 0 min 0 min 9 W/m 16,7 km/h (3 Bft) 100,00 %
07.11.2015 16:46 18,3 C 18,3 C 16,7 C 89 % 0 lf 1020,5 hPa 0,0 l/m 0 min 0 min 9 W/m 12,6 km/h (3 Bft) 97,83 %
07.11.2015 16:48 18,3 C 18,3 C 16,7 C 89 % 0 lf 1020,5 hPa 0,0 l/m 0 min 0 min 7 W/m 25,1 km/h (4 Bft) 95,74 %
07.11.2015 16:50 18,3 C 18,3 C 16,7 C 89 % 0 lf 1020,5 hPa 0,0 l/m 0 min 0 min 5 W/m 18,8 km/h (3 Bft) 100,00 %
07.11.2015 16:52 18,3 C 18,3 C 16,7 C 89 % 0 lf 1020,5 hPa 0,0 l/m 0 min 0 min 5 W/m 14,6 km/h (3 Bft) 100,00 %
07.11.2015 16:54 18,3 C 18,3 C 16,7 C 89 % 0 lf 1020,5 hPa 0,0 l/m 0 min 0 min 5 W/m 14,6 km/h (3 Bft) 97,87 %
07.11.2015 16:56 18,3 C 18,3 C 16,7 C 89 % 0 lf 1020,5 hPa 0,0 l/m 0 min 0 min 5 W/m 14,6 km/h (3 Bft) 100,00 %
07.11.2015 16:58 18,3 C 18,3 C 16,7 C 89 % 0 lf 1020,4 hPa 0,0 l/m 0 min 0 min 6 W/m 16,7 km/h (3 Bft) 97,83 %
07.11.2015 17:00 18,3 C 18,3 C 16,7 C 89 % 0 lf 1020,4 hPa 0,0 l/m 0 min 0 min 10 W/m 20,9 km/h (4 Bft) 100,00 %
07.11.2015 17:02 18,3 C 18,3 C 16,7 C 89 % 0 lf 1020,4 hPa 0,0 l/m 0 min 0 min 9 W/m 18,8 km/h (3 Bft) 97,87 %
07.11.2015 17:04 18,3 C 18,3 C 16,7 C 89 % 0 lf 1020,4 hPa 0,0 l/m 0 min 0 min 6 W/m 23,0 km/h (4 Bft) 100,00 %
07.11.2015 17:06 18,3 C 18,3 C 16,7 C 88 % 0 lf 1020,3 hPa 0,0 l/m 0 min 0 min 0 W/m 18,8 km/h (3 Bft) 100,00 %
07.11.2015 17:08 18,3 C 18,3 C 16,7 C 88 % 0 lf 1020,3 hPa 0,0 l/m 0 min 0 min 0 W/m 14,6 km/h (3 Bft) 97,83 %
07.11.2015 17:10 18,3 C 18,3 C 16,7 C 88 % 0 lf 1020,4 hPa 0,0 l/m 0 min 0 min 0 W/m 16,7 km/h (3 Bft) 97,87 %
07.11.2015 17:12 18,4 C 18,9 C 16,7 C 88 % 0 lf 1020,3 hPa 0,0 l/m 0 min 0 min 0 W/m 18,8 km/h (3 Bft) 93,62 %
07.11.2015 17:14 18,4 C 18,9 C 16,7 C 88 % 0 lf 1020,4 hPa 0,0 l/m 0 min 0 min 0 W/m 16,7 km/h (3 Bft) 97,87 %
07.11.2015 17:16 18,4 C 18,3 C 16,7 C 88 % 0 lf 1020,5 hPa 0,0 l/m 0 min 0 min 0 W/m 14,6 km/h (3 Bft) 95,74 %
07.11.2015 17:18 18,4 C 18,9 C 16,7 C 88 % 0 lf 1020,4 hPa 0,0 l/m 0 min 0 min 0 W/m 23,0 km/h (4 Bft) 95,74 %
07.11.2015 17:20 18,4 C 18,3 C 16,7 C 88 % 0 lf 1020,4 hPa 0,0 l/m 0 min 0 min 0 W/m 18,8 km/h (3 Bft) 97,87 %
07.11.2015 17:22 18,4 C 18,3 C 16,7 C 88 % 0 lf 1020,4 hPa 0,0 l/m 0 min 0 min 0 W/m 12,6 km/h (3 Bft) 97,83 %
07.11.2015 17:24 18,4 C 18,9 C 16,7 C 88 % 0 lf 1020,3 hPa 0,0 l/m 0 min 0 min 0 W/m 23,0 km/h (4 Bft) 95,74 %
07.11.2015 17:26 18,4 C 18,3 C 16,7 C 88 % 0 lf 1020,4 hPa 0,0 l/m 0 min 0 min 0 W/m 14,6 km/h (3 Bft) 95,74 %
07.11.2015 17:28 18,4 C 18,3 C 16,7 C 88 % 0 lf 1020,4 hPa 0,0 l/m 0 min 0 min 0 W/m 20,9 km/h (4 Bft) 93,62 %
07.11.2015 17:30 18,4 C 18,9 C 16,7 C 88 % 0 lf 1020,5 hPa 0,0 l/m 0 min 0 min 0 W/m 20,9 km/h (4 Bft) 91,49 %
07.11.2015 17:32 18,4 C 18,9 C 16,7 C 87 % 0 lf 1020,5 hPa 0,0 l/m 0 min 0 min 0 W/m 23,0 km/h (4 Bft) 95,12 %
07.11.2015 17:34 18,4 C 18,9 C 16,7 C 87 % 0 lf 1020,4 hPa 0,0 l/m 0 min 0 min 0 W/m 27,2 km/h (4 Bft) 96,00 %
07.11.2015 17:36 18,5 C 18,9 C 16,7 C 87 % 0 lf 1020,3 hPa 0,0 l/m 0 min 0 min 0 W/m 23,0 km/h (4 Bft) 95,65 %
07.11.2015 17:38 18,5 C 18,9 C 16,7 C 87 % 0 lf 1020,4 hPa 0,0 l/m 0 min 0 min 0 W/m 20,9 km/h (4 Bft) 93,62 %
07.11.2015 17:40 18,5 C 18,9 C 16,7 C 87 % 0 lf 1020,4 hPa 0,0 l/m 0 min 0 min 0 W/m 23,0 km/h (4 Bft) 93,62 %
07.11.2015 17:42 18,5 C 18,9 C 16,7 C 87 % 0 lf 1020,4 hPa 0,0 l/m 0 min 0 min 0 W/m 25,1 km/h (4 Bft) 100,00 %
07.11.2015 17:44 18,5 C 18,9 C 16,7 C 87 % 0 lf 1020,4 hPa 0,0 l/m 0 min 0 min 0 W/m 18,8 km/h (3 Bft) 97,87 %
07.11.2015 17:46 18,5 C 18,9 C 16,7 C 87 % 0 lf 1020,4 hPa 0,0 l/m 0 min 0 min 0 W/m 23,0 km/h (4 Bft) 97,87 %
07.11.2015 17:48 18,6 C 18,9 C 16,7 C 87 % 0 lf 1020,4 hPa 0,0 l/m 0 min 0 min 0 W/m 18,8 km/h (3 Bft) 97,83 %
07.11.2015 17:50 18,6 C 18,9 C 16,7 C 87 % 0 lf 1020,4 hPa 0,0 l/m 0 min 0 min 0 W/m 16,7 km/h (3 Bft) 97,87 %
07.11.2015 17:52 18,6 C 18,9 C 16,7 C 87 % 0 lf 1020,4 hPa 0,0 l/m 0 min 0 min 0 W/m 14,6 km/h (3 Bft) 95,92 %
07.11.2015 17:54 18,6 C 18,9 C 16,7 C 87 % 0 lf 1020,4 hPa 0,0 l/m 0 min 0 min 0 W/m 16,7 km/h (3 Bft) 95,74 %
07.11.2015 17:56 18,6 C 18,9 C 16,7 C 87 % 0 lf 1020,4 hPa 0,0 l/m 0 min 0 min 0 W/m 20,9 km/h (4 Bft) 97,83 %
07.11.2015 17:58 18,6 C 18,9 C 16,7 C 87 % 0 lf 1020,5 hPa 0,0 l/m 0 min 0 min 0 W/m 25,1 km/h (4 Bft) 93,62 %
07.11.2015 18:00 18,6 C 18,9 C 16,7 C 87 % 0 lf 1020,4 hPa 0,0 l/m 0 min 0 min 0 W/m 18,8 km/h (3 Bft) 97,87 %
07.11.2015 18:02 18,6 C 18,9 C 16,7 C 86 % 0 lf 1020,4 hPa 0,0 l/m 0 min 0 min 0 W/m 16,7 km/h (3 Bft) 93,62 %
07.11.2015 18:04 18,6 C 18,9 C 16,7 C 86 % 0 lf 1020,5 hPa 0,0 l/m 0 min 0 min 0 W/m 18,8 km/h (3 Bft) 97,87 %
07.11.2015 18:06 18,7 C 18,9 C 16,7 C 86 % 0 lf 1020,5 hPa 0,0 l/m 0 min 0 min 0 W/m 20,9 km/h (4 Bft) 95,74 %
07.11.2015 18:08 18,7 C 18,9 C 17,2 C 86 % 0 lf 1020,5 hPa 0,0 l/m 0 min 0 min 0 W/m 25,1 km/h (4 Bft) 91,30 %
07.11.2015 18:10 18,7 C 18,9 C 16,7 C 86 % 0 lf 1020,5 hPa 0,0 l/m 0 min 0 min 0 W/m 18,8 km/h (3 Bft) 89,36 %
07.11.2015 18:12 18,7 C 18,9 C 16,7 C 86 % 0 lf 1020,4 hPa 0,0 l/m 0 min 0 min 0 W/m 20,9 km/h (4 Bft) 93,62 %
07.11.2015 18:14 18,7 C 18,9 C 16,7 C 86 % 0 lf 1020,5 hPa 0,0 l/m 0 min 0 min 0 W/m 20,9 km/h (4 Bft) 93,62 %
07.11.2015 18:16 18,7 C 18,9 C 16,7 C 86 % 0 lf 1020,5 hPa 0,0 l/m 0 min 0 min 0 W/m 23,0 km/h (4 Bft) 91,49 %
07.11.2015 18:18 18,7 C 18,9 C 16,7 C 86 % 0 lf 1020,4 hPa 0,0 l/m 0 min 0 min 0 W/m 27,2 km/h (4 Bft) 95,74 %
07.11.2015 18:20 18,7 C 18,9 C 16,7 C 86 % 0 lf 1020,5 hPa 0,0 l/m 0 min 0 min 0 W/m 18,8 km/h (3 Bft) 91,30 %
07.11.2015 18:22 18,7 C 18,9 C 16,7 C 86 % 0 lf 1020,5 hPa 0,0 l/m 0 min 0 min 0 W/m 14,6 km/h (3 Bft) 93,62 %
07.11.2015 18:24 18,7 C 18,9 C 16,7 C 86 % 0 lf 1020,5 hPa 0,0 l/m 0 min 0 min 0 W/m 16,7 km/h (3 Bft) 91,49 %
07.11.2015 18:26 18,7 C 18,9 C 16,7 C 86 % 0 lf 1020,5 hPa 0,0 l/m 0 min 0 min 0 W/m 20,9 km/h (4 Bft) 95,74 %
07.11.2015 18:28 18,8 C 18,9 C 16,7 C 86 % 0 lf 1020,6 hPa 0,0 l/m 0 min 0 min 0 W/m 16,7 km/h (3 Bft) 93,62 %
07.11.2015 18:30 18,8 C 18,9 C 16,7 C 85 % 0 lf 1020,5 hPa 0,0 l/m 0 min 0 min 0 W/m 20,9 km/h (4 Bft) 93,62 %
07.11.2015 18:32 18,8 C 18,9 C 16,7 C 85 % 0 lf 1020,5 hPa 0,0 l/m 0 min 0 min 0 W/m 25,1 km/h (4 Bft) 88,57 %
07.11.2015 18:34 18,8 C 18,9 C 16,7 C 86 % 0 lf 1020,4 hPa 0,0 l/m 0 min 0 min 0 W/m 27,2 km/h (4 Bft) 95,74 %
07.11.2015 18:36 18,8 C 18,9 C 16,7 C 86 % 0 lf 1020,4 hPa 0,0 l/m 0 min 0 min 0 W/m 27,2 km/h (4 Bft) 93,48 %
07.11.2015 18:38 18,7 C 18,9 C 16,7 C 85 % 0 lf 1020,4 hPa 0,0 l/m 0 min 0 min 0 W/m 23,0 km/h (4 Bft) 91,49 %
07.11.2015 18:40 18,7 C 18,9 C 16,7 C 85 % 0 lf 1020,3 hPa 0,0 l/m 0 min 0 min 0 W/m 31,4 km/h (5 Bft) 95,74 %
07.11.2015 18:42 18,8 C 18,9 C 16,7 C 85 % 0 lf 1020,3 hPa 0,0 l/m 0 min 0 min 0 W/m 33,5 km/h (5 Bft) 90,57 %
07.11.2015 18:44 18,8 C 18,9 C 17,2 C 85 % 0 lf 1020,3 hPa 0,0 l/m 0 min 0 min 0 W/m 29,3 km/h (5 Bft) 93,62 %
07.11.2015 18:46 18,8 C 18,9 C 17,2 C 85 % 0 lf 1020,3 hPa 0,0 l/m 0 min 0 min 0 W/m 31,4 km/h (5 Bft) 95,74 %
07.11.2015 18:48 18,8 C 18,9 C 16,7 C 85 % 0 lf 1020,4 hPa 0,0 l/m 0 min 0 min 0 W/m 20,9 km/h (4 Bft) 95,65 %
07.11.2015 18:50 18,8 C 18,9 C 16,7 C 85 % 0 lf 1020,3 hPa 0,0 l/m 0 min 0 min 0 W/m 23,0 km/h (4 Bft) 93,62 %
07.11.2015 18:52 18,8 C 18,9 C 17,2 C 85 % 0 lf 1020,4 hPa 0,0 l/m 0 min 0 min 0 W/m 20,9 km/h (4 Bft) 95,83 %
07.11.2015 18:54 18,8 C 18,9 C 16,7 C 85 % 0 lf 1020,2 hPa 0,0 l/m 0 min 0 min 0 W/m 20,9 km/h (4 Bft) 93,62 %
07.11.2015 18:56 18,8 C 18,9 C 17,2 C 85 % 0 lf 1020,2 hPa 0,0 l/m 0 min 0 min 0 W/m 25,1 km/h (4 Bft) 93,62 %
07.11.2015 18:58 18,8 C 18,9 C 17,2 C 85 % 0 lf 1020,3 hPa 0,0 l/m 0 min 0 min 0 W/m 27,2 km/h (4 Bft) 95,65 %
07.11.2015 19:00 18,9 C 18,9 C 17,2 C 85 % 0 lf 1020,4 hPa 0,0 l/m 0 min 0 min 0 W/m 31,4 km/h (5 Bft) 97,87 %
07.11.2015 19:02 18,9 C 18,9 C 17,2 C 85 % 0 lf 1020,4 hPa 0,0 l/m 0 min 0 min 0 W/m 31,4 km/h (5 Bft) 98,00 %
07.11.2015 19:04 18,9 C 18,9 C 17,2 C 85 % 0 lf 1020,4 hPa 0,0 l/m 0 min 0 min 0 W/m 31,4 km/h (5 Bft) 100,00 %
07.11.2015 19:06 18,9 C 18,9 C 17,2 C 85 % 0 lf 1020,4 hPa 0,0 l/m 0 min 0 min 0 W/m 25,1 km/h (4 Bft) 97,87 %
07.11.2015 19:08 18,9 C 18,9 C 17,2 C 85 % 0 lf 1020,4 hPa 0,0 l/m 0 min 0 min 0 W/m 25,1 km/h (4 Bft) 95,74 %
07.11.2015 19:10 18,9 C 18,9 C 17,2 C 85 % 0 lf 1020,5 hPa 0,0 l/m 0 min 0 min 0 W/m 23,0 km/h (4 Bft) 93,48 %
07.11.2015 19:12 18,9 C 18,9 C 17,2 C 84 % 0 lf 1020,5 hPa 0,0 l/m 0 min 0 min 0 W/m 20,9 km/h (4 Bft) 97,87 %
07.11.2015 19:14 18,9 C 18,9 C 16,7 C 84 % 0 lf 1020,5 hPa 0,0 l/m 0 min 0 min 0 W/m 29,3 km/h (5 Bft) 95,74 %
07.11.2015 19:16 18,9 C 18,9 C 16,7 C 84 % 0 lf 1020,6 hPa 0,0 l/m 0 min 0 min 0 W/m 23,0 km/h (4 Bft) 97,87 %
07.11.2015 19:18 18,9 C 18,9 C 16,7 C 84 % 0 lf 1020,5 hPa 0,0 l/m 0 min 0 min 0 W/m 25,1 km/h (4 Bft) 97,87 %
07.11.2015 19:20 18,9 C 18,9 C 16,7 C 85 % 0 lf 1020,5 hPa 0,0 l/m 0 min 0 min 0 W/m 23,0 km/h (4 Bft) 95,74 %
07.11.2015 19:22 18,9 C 18,9 C 16,7 C 85 % 0 lf 1020,5 hPa 0,0 l/m 0 min 0 min 0 W/m 29,3 km/h (5 Bft) 95,83 %
07.11.2015 19:24 18,9 C 18,9 C 16,7 C 85 % 0 lf 1020,5 hPa 0,0 l/m 0 min 0 min 0 W/m 27,2 km/h (4 Bft) 97,87 %
07.11.2015 19:26 18,8 C 18,9 C 16,7 C 85 % 0 lf 1020,5 hPa 0,0 l/m 0 min 0 min 0 W/m 20,9 km/h (4 Bft) 95,74 %
07.11.2015 19:28 18,8 C 18,9 C 17,2 C 85 % 0 lf 1020,6 hPa 0,0 l/m 0 min 0 min 0 W/m 27,2 km/h (4 Bft) 100,00 %
07.11.2015 19:30 18,9 C 18,9 C 17,2 C 85 % 0 lf 1020,6 hPa 0,0 l/m 0 min 0 min 0 W/m 20,9 km/h (4 Bft) 95,65 %
07.11.2015 19:32 18,9 C 18,9 C 17,2 C 85 % 0 lf 1020,6 hPa 0,0 l/m 0 min 0 min 0 W/m 33,5 km/h (5 Bft) 93,62 %
07.11.2015 19:34 18,9 C 18,9 C 17,2 C 85 % 0 lf 1020,6 hPa 0,0 l/m 0 min 0 min 0 W/m 27,2 km/h (4 Bft) 97,87 %
07.11.2015 19:36 18,9 C 18,9 C 17,2 C 85 % 0 lf 1020,6 hPa 0,0 l/m 0 min 0 min 0 W/m 33,5 km/h (5 Bft) 97,87 %
07.11.2015 19:38 18,9 C 18,9 C 17,2 C 85 % 0 lf 1020,5 hPa 0,0 l/m 0 min 0 min 0 W/m 20,9 km/h (4 Bft) 97,87 %
07.11.2015 19:40 18,9 C 18,9 C 17,2 C 85 % 0 lf 1020,5 hPa 0,0 l/m 0 min 0 min 0 W/m 35,6 km/h (5 Bft) 97,87 %
07.11.2015 19:42 18,9 C 18,9 C 17,2 C 85 % 0 lf 1020,5 hPa 0,2 l/m 0 min 0 min 0 W/m 33,5 km/h (5 Bft) 97,83 %
07.11.2015 19:44 18,9 C 18,9 C 17,2 C 85 % 0 lf 1020,5 hPa 0,0 l/m 0 min 0 min 0 W/m 29,3 km/h (5 Bft) 100,00 %
07.11.2015 19:46 18,9 C 18,9 C 17,2 C 85 % 0 lf 1020,6 hPa 0,0 l/m 0 min 0 min 0 W/m 31,4 km/h (5 Bft) 97,87 %
07.11.2015 19:48 18,9 C 18,9 C 17,2 C 85 % 0 lf 1020,6 hPa 0,0 l/m 0 min 0 min 0 W/m 23,0 km/h (4 Bft) 100,00 %
07.11.2015 19:50 18,9 C 18,9 C 17,2 C 85 % 0 lf 1020,6 hPa 0,0 l/m 0 min 0 min 0 W/m 18,8 km/h (3 Bft) 100,00 %
07.11.2015 19:52 18,9 C 18,9 C 17,2 C 85 % 0 lf 1020,6 hPa 0,0 l/m 0 min 0 min 0 W/m 23,0 km/h (4 Bft) 100,00 %
07.11.2015 19:54 18,9 C 18,9 C 17,2 C 85 % 0 lf 1020,6 hPa 0,0 l/m 0 min 0 min 0 W/m 29,3 km/h (5 Bft) 100,00 %
07.11.2015 19:56 18,9 C 18,9 C 17,2 C 85 % 0 lf 1020,5 hPa 0,0 l/m 0 min 0 min 0 W/m 37,7 km/h (5 Bft) 100,00 %
07.11.2015 19:58 18,9 C 18,9 C 17,2 C 85 % 0 lf 1020,7 hPa 0,0 l/m 0 min 0 min 0 W/m 23,0 km/h (4 Bft) 100,00 %
07.11.2015 20:00 18,9 C 18,9 C 17,2 C 85 % 0 lf 1020,8 hPa 0,0 l/m 0 min 0 min 0 W/m 35,6 km/h (5 Bft) 97,87 %
07.11.2015 20:02 19,0 C 18,9 C 17,2 C 85 % 0 lf 1020,8 hPa 0,0 l/m 0 min 0 min 0 W/m 33,5 km/h (5 Bft) 97,87 %
07.11.2015 20:04 19,0 C 18,9 C 17,2 C 85 % 0 lf 1020,9 hPa 0,0 l/m 0 min 0 min 0 W/m 23,0 km/h (4 Bft) 97,87 %
07.11.2015 20:06 19,0 C 18,9 C 17,2 C 85 % 0 lf 1020,9 hPa 0,0 l/m 0 min 0 min 0 W/m 29,3 km/h (5 Bft) 100,00 %
07.11.2015 20:08 19,0 C 18,9 C 17,2 C 85 % 0 lf 1021,0 hPa 0,0 l/m 0 min 0 min 0 W/m 23,0 km/h (4 Bft) 100,00 %
07.11.2015 20:10 19,0 C 18,9 C 17,2 C 85 % 0 lf 1021,0 hPa 0,0 l/m 0 min 0 min 0 W/m 31,4 km/h (5 Bft) 100,00 %
07.11.2015 20:12 19,0 C 18,9 C 17,2 C 85 % 0 lf 1021,0 hPa 0,0 l/m 0 min 0 min 0 W/m 18,8 km/h (3 Bft) 97,87 %
07.11.2015 20:14 18,9 C 18,9 C 17,2 C 85 % 0 lf 1021,0 hPa 0,0 l/m 0 min 0 min 0 W/m 29,3 km/h (5 Bft) 97,87 %
07.11.2015 20:16 19,0 C 18,9 C 17,2 C 85 % 0 lf 1020,9 hPa 0,0 l/m 0 min 0 min 0 W/m 27,2 km/h (4 Bft) 100,00 %
07.11.2015 20:18 18,9 C 18,9 C 17,2 C 85 % 0 lf 1020,9 hPa 0,0 l/m 0 min 0 min 0 W/m 29,3 km/h (5 Bft) 100,00 %
07.11.2015 20:20 19,0 C 18,9 C 17,2 C 85 % 0 lf 1020,7 hPa 0,0 l/m 0 min 0 min 0 W/m 33,5 km/h (5 Bft) 95,74 %
07.11.2015 20:22 19,0 C 18,9 C 17,2 C 85 % 0 lf 1020,6 hPa 0,0 l/m 0 min 0 min 0 W/m 33,5 km/h (5 Bft) 97,87 %
07.11.2015 20:24 19,0 C 18,9 C 17,2 C 85 % 0 lf 1020,5 hPa 0,0 l/m 0 min 0 min 0 W/m 23,0 km/h (4 Bft) 97,87 %
07.11.2015 20:26 19,0 C 18,9 C 17,2 C 85 % 0 lf 1020,6 hPa 0,0 l/m 0 min 0 min 0 W/m 27,2 km/h (4 Bft) 100,00 %
07.11.2015 20:28 19,0 C 18,9 C 17,2 C 85 % 0 lf 1020,7 hPa 0,0 l/m 0 min 0 min 0 W/m 20,9 km/h (4 Bft) 97,83 %
07.11.2015 20:30 18,9 C 18,9 C 16,7 C 85 % 0 lf 1020,7 hPa 0,0 l/m 0 min 0 min 0 W/m 27,2 km/h (4 Bft) 97,87 %
07.11.2015 20:32 18,9 C 18,9 C 16,7 C 85 % 0 lf 1020,6 hPa 0,0 l/m 0 min 0 min 0 W/m 25,1 km/h (4 Bft) 97,87 %
07.11.2015 20:34 18,9 C 18,9 C 16,7 C 85 % 0 lf 1020,8 hPa 0,0 l/m 0 min 0 min 0 W/m 29,3 km/h (5 Bft) 97,87 %
07.11.2015 20:36 18,9 C 18,9 C 16,7 C 85 % 0 lf 1020,9 hPa 0,0 l/m 0 min 0 min 0 W/m 25,1 km/h (4 Bft) 100,00 %
07.11.2015 20:38 18,9 C 18,9 C 17,2 C 85 % 0 lf 1020,9 hPa 0,0 l/m 0 min 0 min 0 W/m 20,9 km/h (4 Bft) 97,87 %
07.11.2015 20:40 18,9 C 18,9 C 16,7 C 85 % 0 lf 1021,0 hPa 0,0 l/m 0 min 0 min 0 W/m 20,9 km/h (4 Bft) 97,83 %
07.11.2015 20:42 18,9 C 18,9 C 17,2 C 85 % 0 lf 1021,0 hPa 0,0 l/m 0 min 0 min 0 W/m 35,6 km/h (5 Bft) 95,74 %
07.11.2015 20:44 18,9 C 18,9 C 16,7 C 86 % 0 lf 1021,0 hPa 0,0 l/m 0 min 0 min 0 W/m 29,3 km/h (5 Bft) 97,87 %
07.11.2015 20:46 18,9 C 18,9 C 16,7 C 86 % 0 lf 1021,1 hPa 0,0 l/m 0 min 0 min 0 W/m 33,5 km/h (5 Bft) 100,00 %
07.11.2015 20:48 18,9 C 18,9 C 16,7 C 86 % 0 lf 1021,0 hPa 0,0 l/m 0 min 0 min 0 W/m 18,8 km/h (3 Bft) 97,87 %
07.11.2015 20:50 18,9 C 18,9 C 16,7 C 86 % 0 lf 1021,0 hPa 0,0 l/m 0 min 0 min 0 W/m 23,0 km/h (4 Bft) 97,87 %
07.11.2015 20:52 18,9 C 18,9 C 16,7 C 86 % 0 lf 1021,0 hPa 0,0 l/m 0 min 0 min 0 W/m 29,3 km/h (5 Bft) 93,48 %
07.11.2015 20:54 18,8 C 18,9 C 16,7 C 86 % 0 lf 1021,0 hPa 0,0 l/m 0 min 0 min 0 W/m 37,7 km/h (5 Bft) 97,87 %
07.11.2015 20:56 18,8 C 18,9 C 16,7 C 86 % 0 lf 1021,1 hPa 0,0 l/m 0 min 0 min 0 W/m 25,1 km/h (4 Bft) 95,74 %
07.11.2015 20:58 18,8 C 18,9 C 16,7 C 86 % 0 lf 1021,1 hPa 0,0 l/m 0 min 0 min 0 W/m 27,2 km/h (4 Bft) 93,62 %
07.11.2015 21:00 18,8 C 18,9 C 16,7 C 86 % 0 lf 1021,2 hPa 0,0 l/m 0 min 0 min 0 W/m 33,5 km/h (5 Bft) 93,62 %
07.11.2015 21:02 18,8 C 18,9 C 16,7 C 86 % 0 lf 1021,2 hPa 0,0 l/m 0 min 0 min 0 W/m 35,6 km/h (5 Bft) 97,14 %
07.11.2015 21:04 18,8 C 18,9 C 16,7 C 86 % 0 lf 1021,3 hPa 0,0 l/m 0 min 0 min 0 W/m 33,5 km/h (5 Bft) 91,49 %
07.11.2015 21:06 18,8 C 18,9 C 16,7 C 86 % 0 lf 1021,2 hPa 0,0 l/m 0 min 0 min 0 W/m 48,1 km/h (6 Bft) 93,48 %
07.11.2015 21:08 18,8 C 18,9 C 16,7 C 86 % 0 lf 1021,3 hPa 0,0 l/m 0 min 0 min 0 W/m 33,5 km/h (5 Bft) 91,49 %
07.11.2015 21:10 18,8 C 18,9 C 16,7 C 86 % 0 lf 1021,3 hPa 0,0 l/m 0 min 0 min 0 W/m 35,6 km/h (5 Bft) 89,36 %
07.11.2015 21:12 18,8 C 18,9 C 16,7 C 86 % 0 lf 1021,3 hPa 0,0 l/m 0 min 0 min 0 W/m 23,0 km/h (4 Bft) 89,36 %
07.11.2015 21:14 18,8 C 18,3 C 16,7 C 86 % 0 lf 1021,4 hPa 0,0 l/m 0 min 0 min 0 W/m 31,4 km/h (5 Bft) 91,49 %
07.11.2015 21:16 18,7 C 18,9 C 16,7 C 86 % 0 lf 1021,4 hPa 0,0 l/m 0 min 0 min 0 W/m 35,6 km/h (5 Bft) 89,36 %
07.11.2015 21:18 18,7 C 18,9 C 16,7 C 86 % 0 lf 1021,4 hPa 0,0 l/m 0 min 0 min 0 W/m 29,3 km/h (5 Bft) 89,13 %
07.11.2015 21:20 18,7 C 18,3 C 16,7 C 86 % 0 lf 1021,4 hPa 0,0 l/m 0 min 0 min 0 W/m 25,1 km/h (4 Bft) 89,36 %
07.11.2015 21:22 18,7 C 18,3 C 16,7 C 86 % 0 lf 1021,5 hPa 0,0 l/m 0 min 0 min 0 W/m 37,7 km/h (5 Bft) 85,11 %
07.11.2015 21:24 18,7 C 18,9 C 16,7 C 86 % 0 lf 1021,6 hPa 0,0 l/m 0 min 0 min 0 W/m 29,3 km/h (5 Bft) 91,49 %
07.11.2015 21:26 18,7 C 18,9 C 16,7 C 86 % 0 lf 1021,5 hPa 0,0 l/m 0 min 0 min 0 W/m 23,0 km/h (4 Bft) 89,36 %
07.11.2015 21:28 18,7 C 18,9 C 16,7 C 86 % 0 lf 1021,5 hPa 0,0 l/m 0 min 0 min 0 W/m 31,4 km/h (5 Bft) 87,23 %
07.11.2015 21:30 18,7 C 18,9 C 16,7 C 86 % 0 lf 1021,6 hPa 0,0 l/m 0 min 0 min 0 W/m 27,2 km/h (4 Bft) 89,13 %
07.11.2015 21:32 18,7 C 18,9 C 16,7 C 87 % 0 lf 1021,7 hPa 0,0 l/m 0 min 0 min 0 W/m 29,3 km/h (5 Bft) 90,74 %
07.11.2015 21:34 18,7 C 18,9 C 16,7 C 87 % 0 lf 1021,7 hPa 0,0 l/m 0 min 0 min 0 W/m 31,4 km/h (5 Bft) 91,49 %
07.11.2015 21:36 18,7 C 18,9 C 16,7 C 87 % 0 lf 1021,9 hPa 0,0 l/m 0 min 0 min 0 W/m 33,5 km/h (5 Bft) 89,36 %
07.11.2015 21:38 18,7 C 18,9 C 16,7 C 87 % 0 lf 1021,8 hPa 0,0 l/m 0 min 0 min 0 W/m 27,2 km/h (4 Bft) 91,49 %
07.11.2015 21:40 18,7 C 18,9 C 16,7 C 87 % 0 lf 1021,9 hPa 0,0 l/m 0 min 0 min 0 W/m 33,5 km/h (5 Bft) 93,62 %
07.11.2015 21:42 18,7 C 18,9 C 16,7 C 87 % 0 lf 1021,9 hPa 0,0 l/m 0 min 0 min 0 W/m 31,4 km/h (5 Bft) 91,49 %
07.11.2015 21:44 18,7 C 18,9 C 16,7 C 87 % 0 lf 1022,1 hPa 0,0 l/m 0 min 0 min 0 W/m 35,6 km/h (5 Bft) 91,49 %
07.11.2015 21:46 18,7 C 18,9 C 17,2 C 87 % 0 lf 1022,1 hPa 0,0 l/m 0 min 0 min 0 W/m 46,0 km/h (6 Bft) 95,74 %
07.11.2015 21:48 18,7 C 18,9 C 17,2 C 87 % 0 lf 1022,2 hPa 0,0 l/m 0 min 0 min 0 W/m 33,5 km/h (5 Bft) 95,74 %
07.11.2015 21:50 18,7 C 18,9 C 17,2 C 87 % 0 lf 1022,3 hPa 0,0 l/m 0 min 0 min 0 W/m 20,9 km/h (4 Bft) 91,49 %
07.11.2015 21:52 18,7 C 18,9 C 16,7 C 87 % 0 lf 1022,2 hPa 0,0 l/m 0 min 0 min 0 W/m 27,2 km/h (4 Bft) 95,83 %
07.11.2015 21:54 18,7 C 18,9 C 16,7 C 87 % 0 lf 1022,2 hPa 0,0 l/m 0 min 0 min 0 W/m 33,5 km/h (5 Bft) 95,65 %
07.11.2015 21:56 18,7 C 18,9 C 16,7 C 87 % 0 lf 1022,2 hPa 0,0 l/m 0 min 0 min 0 W/m 25,1 km/h (4 Bft) 93,62 %
07.11.2015 21:58 18,7 C 18,9 C 16,7 C 87 % 0 lf 1022,2 hPa 0,0 l/m 0 min 0 min 0 W/m 29,3 km/h (5 Bft) 95,74 %
07.11.2015 22:00 18,7 C 18,3 C 16,7 C 86 % 0 lf 1022,3 hPa 0,0 l/m 0 min 0 min 0 W/m 25,1 km/h (4 Bft) 91,49 %
07.11.2015 22:02 18,7 C 18,3 C 16,7 C 86 % 0 lf 1022,3 hPa 0,0 l/m 0 min 0 min 0 W/m 25,1 km/h (4 Bft) 93,88 %
07.11.2015 22:04 18,7 C 18,3 C 16,7 C 86 % 0 lf 1022,3 hPa 0,0 l/m 0 min 0 min 0 W/m 29,3 km/h (5 Bft) 100,00 %
07.11.2015 22:06 18,6 C 18,3 C 16,7 C 87 % 0 lf 1022,3 hPa 0,0 l/m 0 min 0 min 0 W/m 41,8 km/h (6 Bft) 97,87 %
07.11.2015 22:08 18,6 C 18,3 C 16,1 C 87 % 0 lf 1022,3 hPa 0,0 l/m 0 min 0 min 0 W/m 20,9 km/h (4 Bft) 97,87 %
07.11.2015 22:10 18,6 C 17,8 C 16,1 C 87 % 0 lf 1022,5 hPa 0,0 l/m 0 min 0 min 0 W/m 25,1 km/h (4 Bft) 100,00 %
07.11.2015 22:12 18,5 C 18,3 C 16,1 C 87 % 0 lf 1022,5 hPa 0,0 l/m 0 min 0 min 0 W/m 29,3 km/h (5 Bft) 100,00 %
07.11.2015 22:14 18,4 C 18,3 C 16,1 C 86 % 0 lf 1022,4 hPa 0,0 l/m 0 min 0 min 0 W/m 25,1 km/h (4 Bft) 97,83 %
07.11.2015 22:16 18,4 C 17,8 C 16,1 C 86 % 0 lf 1022,5 hPa 0,0 l/m 0 min 0 min 0 W/m 23,0 km/h (4 Bft) 97,87 %
07.11.2015 22:18 18,3 C 17,8 C 16,1 C 86 % 0 lf 1022,7 hPa 0,0 l/m 0 min 0 min 0 W/m 27,2 km/h (4 Bft) 100,00 %
07.11.2015 22:20 18,3 C 17,8 C 16,1 C 86 % 0 lf 1022,7 hPa 0,0 l/m 0 min 0 min 0 W/m 29,3 km/h (5 Bft) 100,00 %
07.11.2015 22:22 18,3 C 17,8 C 16,1 C 86 % 0 lf 1022,7 hPa 0,0 l/m 0 min 0 min 0 W/m 25,1 km/h (4 Bft) 97,87 %
07.11.2015 22:24 18,2 C 17,8 C 16,1 C 86 % 0 lf 1022,7 hPa 0,0 l/m 0 min 0 min 0 W/m 23,0 km/h (4 Bft) 97,87 %
07.11.2015 22:26 18,2 C 17,8 C 16,1 C 86 % 0 lf 1022,8 hPa 0,0 l/m 0 min 0 min 0 W/m 18,8 km/h (3 Bft) 97,83 %
07.11.2015 22:28 18,2 C 17,8 C 16,1 C 86 % 0 lf 1022,9 hPa 0,0 l/m 0 min 0 min 0 W/m 25,1 km/h (4 Bft) 100,00 %
07.11.2015 22:30 18,2 C 17,8 C 16,1 C 86 % 0 lf 1022,9 hPa 0,0 l/m 0 min 0 min 0 W/m 18,8 km/h (3 Bft) 100,00 %
07.11.2015 22:32 18,1 C 17,8 C 16,1 C 86 % 0 lf 1022,9 hPa 0,0 l/m 0 min 0 min 0 W/m 25,1 km/h (4 Bft) 97,87 %
07.11.2015 22:34 18,1 C 17,8 C 16,1 C 86 % 0 lf 1023,1 hPa 0,0 l/m 0 min 0 min 0 W/m 18,8 km/h (3 Bft) 100,00 %
07.11.2015 22:36 18,0 C 17,8 C 16,1 C 86 % 0 lf 1023,2 hPa 0,0 l/m 0 min 0 min 0 W/m 20,9 km/h (4 Bft) 100,00 %
07.11.2015 22:38 18,0 C 17,8 C 16,1 C 86 % 0 lf 1023,3 hPa 0,0 l/m 0 min 0 min 0 W/m 16,7 km/h (3 Bft) 97,83 %
07.11.2015 22:40 17,9 C 17,2 C 16,1 C 86 % 0 lf 1023,3 hPa 0,0 l/m 0 min 0 min 0 W/m 23,0 km/h (4 Bft) 100,00 %
07.11.2015 22:42 17,9 C 17,2 C 16,1 C 86 % 0 lf 1023,3 hPa 0,0 l/m 0 min 0 min 0 W/m 18,8 km/h (3 Bft) 100,00 %
07.11.2015 22:44 17,9 C 17,2 C 15,6 C 86 % 0 lf 1023,4 hPa 0,0 l/m 0 min 0 min 0 W/m 18,8 km/h (3 Bft) 100,00 %
07.11.2015 22:46 17,8 C 17,2 C 15,6 C 85 % 0 lf 1023,4 hPa 0,0 l/m 0 min 0 min 0 W/m 18,8 km/h (3 Bft) 97,87 %
07.11.2015 22:48 17,7 C 17,2 C 15,6 C 85 % 0 lf 1023,4 hPa 0,0 l/m 0 min 0 min 0 W/m 31,4 km/h (5 Bft) 100,00 %
07.11.2015 22:50 17,7 C 17,2 C 15,6 C 84 % 0 lf 1023,4 hPa 0,0 l/m 0 min 0 min 0 W/m 25,1 km/h (4 Bft) 97,87 %
07.11.2015 22:52 17,6 C 17,2 C 15,0 C 84 % 0 lf 1023,4 hPa 0,0 l/m 0 min 0 min 0 W/m 25,1 km/h (4 Bft) 95,74 %
07.11.2015 22:54 17,5 C 16,7 C 15,0 C 83 % 0 lf 1023,4 hPa 0,0 l/m 0 min 0 min 0 W/m 20,9 km/h (4 Bft) 97,87 %
07.11.2015 22:56 17,4 C 16,7 C 15,0 C 83 % 0 lf 1023,4 hPa 0,0 l/m 0 min 0 min 0 W/m 16,7 km/h (3 Bft) 100,00 %
07.11.2015 22:58 17,4 C 16,7 C 15,0 C 83 % 0 lf 1023,5 hPa 0,0 l/m 0 min 0 min 0 W/m 25,1 km/h (4 Bft) 100,00 %
07.11.2015 23:00 17,3 C 16,7 C 15,0 C 82 % 0 lf 1023,5 hPa 0,0 l/m 0 min 0 min 0 W/m 25,1 km/h (4 Bft) 100,00 %
07.11.2015 23:02 17,2 C 16,7 C 15,0 C 82 % 0 lf 1023,5 hPa 0,0 l/m 0 min 0 min 0 W/m 29,3 km/h (5 Bft) 100,00 %
07.11.2015 23:04 17,2 C 16,7 C 15,0 C 82 % 0 lf 1023,5 hPa 0,0 l/m 0 min 0 min 0 W/m 27,2 km/h (4 Bft) 98,28 %
07.11.2015 23:06 17,1 C 16,7 C 15,0 C 82 % 0 lf 1023,5 hPa 0,0 l/m 0 min 0 min 0 W/m 27,2 km/h (4 Bft) 97,14 %
07.11.2015 23:08 17,1 C 16,1 C 15,0 C 82 % 0 lf 1023,6 hPa 0,0 l/m 0 min 0 min 0 W/m 20,9 km/h (4 Bft) 93,62 %
07.11.2015 23:10 17,0 C 16,1 C 14,4 C 82 % 0 lf 1023,6 hPa 0,0 l/m 0 min 0 min 0 W/m 23,0 km/h (4 Bft) 95,74 %
07.11.2015 23:12 16,9 C 16,1 C 14,4 C 82 % 0 lf 1023,6 hPa 0,0 l/m 0 min 0 min 0 W/m 18,8 km/h (3 Bft) 95,74 %
07.11.2015 23:14 16,9 C 16,1 C 14,4 C 82 % 0 lf 1023,6 hPa 0,0 l/m 0 min 0 min 0 W/m 14,6 km/h (3 Bft) 97,87 %
07.11.2015 23:16 16,9 C 16,1 C 14,4 C 83 % 0 lf 1023,6 hPa 0,0 l/m 0 min 0 min 0 W/m 14,6 km/h (3 Bft) 97,83 %
07.11.2015 23:18 16,8 C 16,1 C 13,9 C 83 % 0 lf 1023,6 hPa 0,0 l/m 0 min 0 min 0 W/m 12,6 km/h (3 Bft) 97,87 %
07.11.2015 23:20 16,8 C 15,6 C 13,9 C 83 % 0 lf 1023,6 hPa 0,0 l/m 0 min 0 min 0 W/m 14,6 km/h (3 Bft) 97,87 %
07.11.2015 23:22 16,8 C 15,6 C 13,9 C 83 % 0 lf 1023,6 hPa 0,0 l/m 0 min 0 min 0 W/m 18,8 km/h (3 Bft) 97,87 %
07.11.2015 23:24 16,7 C 16,1 C 14,4 C 84 % 0 lf 1023,6 hPa 0,0 l/m 0 min 0 min 0 W/m 27,2 km/h (4 Bft) 97,87 %
07.11.2015 23:26 16,7 C 16,1 C 14,4 C 84 % 0 lf 1023,6 hPa 0,0 l/m 0 min 0 min 0 W/m 25,1 km/h (4 Bft) 97,87 %
07.11.2015 23:28 16,7 C 16,1 C 13,9 C 84 % 0 lf 1023,7 hPa 0,0 l/m 0 min 0 min 0 W/m 14,6 km/h (3 Bft) 95,65 %
07.11.2015 23:30 16,6 C 15,6 C 13,9 C 85 % 0 lf 1023,6 hPa 0,0 l/m 0 min 0 min 0 W/m 10,5 km/h (2 Bft) 93,62 %
07.11.2015 23:32 16,6 C 16,1 C 13,9 C 85 % 0 lf 1023,6 hPa 0,0 l/m 0 min 0 min 0 W/m 16,7 km/h (3 Bft) 98,15 %
07.11.2015 23:34 16,5 C 15,6 C 13,9 C 85 % 0 lf 1023,7 hPa 0,0 l/m 0 min 0 min 0 W/m 8,4 km/h (2 Bft) 97,87 %
07.11.2015 23:36 16,5 C 15,6 C 13,9 C 85 % 0 lf 1023,7 hPa 0,0 l/m 0 min 0 min 0 W/m 12,6 km/h (3 Bft) 97,87 %
07.11.2015 23:38 16,4 C 15,6 C 13,9 C 85 % 0 lf 1023,8 hPa 0,0 l/m 0 min 0 min 0 W/m 16,7 km/h (3 Bft) 97,87 %
07.11.2015 23:40 16,4 C 15,6 C 13,9 C 85 % 0 lf 1023,8 hPa 0,0 l/m 0 min 0 min 0 W/m 16,7 km/h (3 Bft) 97,83 %
07.11.2015 23:42 16,3 C 15,6 C 13,9 C 85 % 0 lf 1023,8 hPa 0,0 l/m 0 min 0 min 0 W/m 12,6 km/h (3 Bft) 93,62 %
07.11.2015 23:44 16,3 C 15,6 C 13,9 C 85 % 0 lf 1023,8 hPa 0,0 l/m 0 min 0 min 0 W/m 14,6 km/h (3 Bft) 97,87 %
07.11.2015 23:46 16,2 C 15,6 C 13,9 C 85 % 0 lf 1023,9 hPa 0,0 l/m 0 min 0 min 0 W/m 16,7 km/h (3 Bft) 97,87 %
07.11.2015 23:48 16,2 C 15,6 C 13,9 C 85 % 0 lf 1024,0 hPa 0,0 l/m 0 min 0 min 0 W/m 16,7 km/h (3 Bft) 97,87 %
07.11.2015 23:50 16,1 C 15,6 C 13,9 C 85 % 0 lf 1024,0 hPa 0,0 l/m 0 min 0 min 0 W/m 14,6 km/h (3 Bft) 97,87 %
07.11.2015 23:52 16,1 C 15,0 C 13,3 C 85 % 0 lf 1024,0 hPa 0,0 l/m 0 min 0 min 0 W/m 12,6 km/h (3 Bft) 97,87 %
07.11.2015 23:54 16,0 C 15,0 C 13,3 C 85 % 0 lf 1024,0 hPa 0,0 l/m 0 min 0 min 0 W/m 14,6 km/h (3 Bft) 95,74 %
07.11.2015 23:56 15,9 C 15,0 C 13,3 C 86 % 0 lf 1024,2 hPa 0,0 l/m 0 min 0 min 0 W/m 12,6 km/h (3 Bft) 93,62 %
07.11.2015 23:58 15,9 C 15,0 C 13,3 C 86 % 0 lf 1024,2 hPa 0,0 l/m 0 min 0 min 0 W/m 12,6 km/h (3 Bft) 93,62 %
_ Min-Zeit 23:56 23:52 23:52 23:00 09:46 00:00 - - - - 08:12 21:22
Minimum _ 15,9 C 15,0 C 13,3 C 82 % 0 lf 1019,8 hPa - - - - 4,2 km/h (1 Bft) 85,11 %
_ Max-Zeit 20:00 13:54 13:10 00:00 00:00 23:56 19:42 08:10 03:44 10:28 21:06 00:52
Maximum _ 19,0 C 20,0 C 17,8 C 98 % 15 lf 1024,2 hPa 0,2 l/m 2 min 2 min 190 W/m 48,1 km/h
SW (6 Bft)
100,00 %
Durchschnitt _ 17,6 C 17,8 C 15,8 C 92 % 1 lf 1021,3 hPa #0,2 l/m #22 min. #23 min. 66 W/m 18,6 km/h (3 Bft) 96,13 %
© 2015 W. Hausmann